Wetterdaten: Samstag, 31.01.2015
Datum Zeit Temp. Aussen +5cm Feuchte Auss Luftdruck Regen Sonnenschein Regendauer Solar Windben
31.01.2015 00:00 1,3 C 0,0 C 95 % 977,2 hPa 0,0 l/m 0 min 2 min 0 W/m 18,8 km/h (3 Bft)
31.01.2015 00:02 1,3 C 0,0 C 94 % 977,2 hPa 0,0 l/m 0 min 2 min 0 W/m 25,1 km/h (4 Bft)
31.01.2015 00:05 1,3 C 0,0 C 95 % 977,2 hPa 0,0 l/m 0 min 2 min 0 W/m 25,1 km/h (4 Bft)
31.01.2015 00:06 1,3 C 0,0 C 95 % 977,2 hPa 0,0 l/m 0 min 1 min 0 W/m 18,8 km/h (3 Bft)
31.01.2015 00:08 1,3 C 0,0 C 95 % 977,2 hPa 0,0 l/m 0 min 2 min 0 W/m 29,3 km/h (5 Bft)
31.01.2015 00:10 1,3 C 0,0 C 95 % 977,2 hPa 0,0 l/m 0 min 2 min 0 W/m 27,2 km/h (4 Bft)
31.01.2015 00:12 1,3 C 0,0 C 95 % 977,3 hPa 0,0 l/m 0 min 2 min 0 W/m 23,0 km/h (4 Bft)
31.01.2015 00:14 1,3 C 0,0 C 95 % 977,3 hPa 0,0 l/m 0 min 2 min 0 W/m 23,0 km/h (4 Bft)
31.01.2015 00:16 1,3 C 0,0 C 95 % 977,2 hPa 0,0 l/m 0 min 2 min 0 W/m 23,0 km/h (4 Bft)
31.01.2015 00:18 1,3 C 0,0 C 95 % 977,2 hPa 0,0 l/m 0 min 2 min 0 W/m 33,5 km/h (5 Bft)
31.01.2015 00:20 1,3 C 0,0 C 95 % 977,2 hPa 0,0 l/m 0 min 2 min 0 W/m 20,9 km/h (4 Bft)
31.01.2015 00:22 1,3 C 0,0 C 95 % 977,2 hPa 0,0 l/m 0 min 2 min 0 W/m 25,1 km/h (4 Bft)
31.01.2015 00:24 1,3 C 0,0 C 95 % 977,3 hPa 0,0 l/m 0 min 2 min 0 W/m 23,0 km/h (4 Bft)
31.01.2015 00:26 1,3 C 0,0 C 95 % 977,2 hPa 0,0 l/m 0 min 2 min 0 W/m 27,2 km/h (4 Bft)
31.01.2015 00:28 1,3 C 0,0 C 95 % 977,3 hPa 0,0 l/m 0 min 2 min 0 W/m 20,9 km/h (4 Bft)
31.01.2015 00:30 1,3 C 0,0 C 95 % 977,3 hPa 0,0 l/m 0 min 2 min 0 W/m 23,0 km/h (4 Bft)
31.01.2015 00:32 1,4 C 0,0 C 95 % 977,3 hPa 0,0 l/m 0 min 2 min 0 W/m 27,2 km/h (4 Bft)
31.01.2015 00:34 1,4 C 0,0 C 95 % 977,4 hPa 0,0 l/m 0 min 0 min 0 W/m 23,0 km/h (4 Bft)
31.01.2015 00:36 1,4 C 0,0 C 95 % 977,4 hPa 0,0 l/m 0 min 0 min 0 W/m 29,3 km/h (5 Bft)
31.01.2015 00:38 1,4 C 0,6 C 95 % 977,4 hPa 0,0 l/m 0 min 0 min 0 W/m 33,5 km/h (5 Bft)
31.01.2015 00:40 1,4 C 0,6 C 95 % 977,4 hPa 0,0 l/m 0 min 0 min 0 W/m 23,0 km/h (4 Bft)
31.01.2015 00:42 1,4 C 0,6 C 95 % 977,4 hPa 0,0 l/m 0 min 0 min 0 W/m 27,2 km/h (4 Bft)
31.01.2015 00:44 1,4 C 0,6 C 95 % 977,4 hPa 0,0 l/m 0 min 0 min 0 W/m 31,4 km/h (5 Bft)
31.01.2015 00:46 1,4 C 0,6 C 95 % 977,4 hPa 0,0 l/m 0 min 0 min 0 W/m 31,4 km/h (5 Bft)
31.01.2015 00:48 1,4 C 0,6 C 95 % 977,4 hPa 0,0 l/m 0 min 0 min 0 W/m 25,1 km/h (4 Bft)
31.01.2015 00:50 1,4 C 0,6 C 95 % 977,3 hPa 0,0 l/m 0 min 0 min 0 W/m 27,2 km/h (4 Bft)
31.01.2015 00:52 1,4 C 0,6 C 95 % 977,3 hPa 0,0 l/m 0 min 0 min 0 W/m 23,0 km/h (4 Bft)
31.01.2015 00:54 1,4 C 0,6 C 95 % 977,4 hPa 0,0 l/m 0 min 0 min 0 W/m 20,9 km/h (4 Bft)
31.01.2015 00:56 1,5 C 0,6 C 95 % 977,4 hPa 0,0 l/m 0 min 0 min 0 W/m 27,2 km/h (4 Bft)
31.01.2015 00:58 1,5 C 0,6 C 95 % 977,4 hPa 0,0 l/m 0 min 0 min 0 W/m 25,1 km/h (4 Bft)
31.01.2015 01:00 1,5 C 0,6 C 95 % 977,4 hPa 0,0 l/m 0 min 0 min 0 W/m 31,4 km/h (5 Bft)
31.01.2015 01:02 1,5 C 0,6 C 95 % 977,3 hPa 0,0 l/m 0 min 0 min 0 W/m 29,3 km/h (5 Bft)
31.01.2015 01:04 1,6 C 0,6 C 95 % 977,4 hPa 0,0 l/m 0 min 0 min 0 W/m 20,9 km/h (4 Bft)
31.01.2015 01:06 1,5 C 0,6 C 95 % 977,4 hPa 0,0 l/m 0 min 0 min 0 W/m 35,6 km/h (5 Bft)
31.01.2015 01:08 1,6 C 0,6 C 95 % 977,4 hPa 0,0 l/m 0 min 0 min 0 W/m 23,0 km/h (4 Bft)
31.01.2015 01:10 1,6 C 0,6 C 95 % 977,4 hPa 0,0 l/m 0 min 0 min 0 W/m 25,1 km/h (4 Bft)
31.01.2015 01:12 1,6 C 0,6 C 95 % 977,5 hPa 0,0 l/m 0 min 0 min 0 W/m 23,0 km/h (4 Bft)
31.01.2015 01:14 1,6 C 0,6 C 95 % 977,5 hPa 0,0 l/m 0 min 0 min 0 W/m 27,2 km/h (4 Bft)
31.01.2015 01:16 1,6 C 0,6 C 95 % 977,5 hPa 0,0 l/m 0 min 0 min 0 W/m 25,1 km/h (4 Bft)
31.01.2015 01:18 1,6 C 0,6 C 95 % 977,4 hPa 0,0 l/m 0 min 0 min 0 W/m 25,1 km/h (4 Bft)
31.01.2015 01:20 1,6 C 0,6 C 95 % 977,4 hPa 0,0 l/m 0 min 0 min 0 W/m 27,2 km/h (4 Bft)
31.01.2015 01:22 1,6 C 0,6 C 95 % 977,4 hPa 0,0 l/m 0 min 0 min 0 W/m 23,0 km/h (4 Bft)
31.01.2015 01:24 1,6 C 0,6 C 95 % 977,5 hPa 0,0 l/m 0 min 0 min 0 W/m 23,0 km/h (4 Bft)
31.01.2015 01:26 1,6 C 0,6 C 95 % 977,5 hPa 0,0 l/m 0 min 0 min 0 W/m 23,0 km/h (4 Bft)
31.01.2015 01:28 1,6 C 0,6 C 95 % 977,5 hPa 0,0 l/m 0 min 0 min 0 W/m 33,5 km/h (5 Bft)
31.01.2015 01:30 1,7 C 0,6 C 95 % 977,5 hPa 0,0 l/m 0 min 0 min 0 W/m 27,2 km/h (4 Bft)
31.01.2015 01:32 1,7 C 0,6 C 95 % 977,5 hPa 0,0 l/m 0 min 0 min 0 W/m 33,5 km/h (5 Bft)
31.01.2015 01:34 1,7 C 0,6 C 95 % 977,5 hPa 0,0 l/m 0 min 0 min 0 W/m 29,3 km/h (5 Bft)
31.01.2015 01:36 1,7 C 0,6 C 95 % 977,6 hPa 0,0 l/m 0 min 0 min 0 W/m 23,0 km/h (4 Bft)
31.01.2015 01:38 1,7 C 0,6 C 95 % 977,6 hPa 0,0 l/m 0 min 0 min 0 W/m 29,3 km/h (5 Bft)
31.01.2015 01:40 1,7 C 0,6 C 96 % 977,5 hPa 0,0 l/m 0 min 0 min 0 W/m 29,3 km/h (5 Bft)
31.01.2015 01:42 1,7 C 0,6 C 96 % 977,6 hPa 0,0 l/m 0 min 0 min 0 W/m 16,7 km/h (3 Bft)
31.01.2015 01:44 1,7 C 0,6 C 96 % 977,6 hPa 0,0 l/m 0 min 0 min 0 W/m 23,0 km/h (4 Bft)
31.01.2015 01:46 1,7 C 0,6 C 96 % 977,6 hPa 0,0 l/m 0 min 0 min 0 W/m 20,9 km/h (4 Bft)
31.01.2015 01:48 1,7 C 0,6 C 96 % 977,6 hPa 0,0 l/m 0 min 0 min 0 W/m 16,7 km/h (3 Bft)
31.01.2015 01:50 1,7 C 0,6 C 96 % 977,6 hPa 0,0 l/m 0 min 0 min 0 W/m 18,8 km/h (3 Bft)
31.01.2015 01:52 1,7 C 0,6 C 96 % 977,6 hPa 0,0 l/m 0 min 0 min 0 W/m 29,3 km/h (5 Bft)
31.01.2015 01:54 1,7 C 0,6 C 96 % 977,7 hPa 0,0 l/m 0 min 0 min 0 W/m 31,4 km/h (5 Bft)
31.01.2015 01:56 1,7 C 0,6 C 96 % 977,6 hPa 0,0 l/m 0 min 0 min 0 W/m 23,0 km/h (4 Bft)
31.01.2015 01:58 1,7 C 0,6 C 96 % 977,7 hPa 0,0 l/m 0 min 0 min 0 W/m 23,0 km/h (4 Bft)
31.01.2015 02:00 1,7 C 0,6 C 96 % 977,8 hPa 0,0 l/m 0 min 0 min 0 W/m 20,9 km/h (4 Bft)
31.01.2015 02:02 1,7 C 0,6 C 96 % 977,8 hPa 0,0 l/m 0 min 0 min 0 W/m 18,8 km/h (3 Bft)
31.01.2015 02:04 1,7 C 0,6 C 96 % 977,8 hPa 0,0 l/m 0 min 0 min 0 W/m 14,6 km/h (3 Bft)
31.01.2015 02:06 1,7 C 0,6 C 96 % 977,8 hPa 0,0 l/m 0 min 0 min 0 W/m 18,8 km/h (3 Bft)
31.01.2015 02:08 1,8 C 0,6 C 96 % 977,8 hPa 0,0 l/m 0 min 0 min 0 W/m 25,1 km/h (4 Bft)
31.01.2015 02:10 1,8 C 0,6 C 96 % 977,9 hPa 0,0 l/m 0 min 0 min 0 W/m 25,1 km/h (4 Bft)
31.01.2015 02:12 1,8 C 0,6 C 96 % 978,0 hPa 0,0 l/m 0 min 0 min 0 W/m 23,0 km/h (4 Bft)
31.01.2015 02:14 1,8 C 0,6 C 96 % 978,0 hPa 0,0 l/m 0 min 0 min 0 W/m 20,9 km/h (4 Bft)
31.01.2015 02:16 1,8 C 0,6 C 96 % 977,9 hPa 0,0 l/m 0 min 0 min 0 W/m 20,9 km/h (4 Bft)
31.01.2015 02:18 1,8 C 0,6 C 96 % 978,0 hPa 0,0 l/m 0 min 0 min 0 W/m 18,8 km/h (3 Bft)
31.01.2015 02:20 1,8 C 0,6 C 96 % 978,0 hPa 0,0 l/m 0 min 0 min 0 W/m 23,0 km/h (4 Bft)
31.01.2015 02:22 1,8 C 0,6 C 96 % 977,9 hPa 0,0 l/m 0 min 0 min 0 W/m 18,8 km/h (3 Bft)
31.01.2015 02:24 1,8 C 0,6 C 96 % 977,9 hPa 0,0 l/m 0 min 0 min 0 W/m 23,0 km/h (4 Bft)
31.01.2015 02:26 1,8 C 0,6 C 96 % 978,0 hPa 0,0 l/m 0 min 0 min 0 W/m 18,8 km/h (3 Bft)
31.01.2015 02:28 1,8 C 0,6 C 96 % 978,0 hPa 0,0 l/m 0 min 0 min 0 W/m 20,9 km/h (4 Bft)
31.01.2015 02:30 1,8 C 0,6 C 96 % 978,0 hPa 0,0 l/m 0 min 0 min 0 W/m 23,0 km/h (4 Bft)
31.01.2015 02:32 1,8 C 0,6 C 96 % 978,0 hPa 0,0 l/m 0 min 0 min 0 W/m 23,0 km/h (4 Bft)
31.01.2015 02:34 1,8 C 0,6 C 96 % 978,0 hPa 0,0 l/m 0 min 0 min 0 W/m 25,1 km/h (4 Bft)
31.01.2015 02:36 1,8 C 0,6 C 96 % 978,0 hPa 0,0 l/m 0 min 0 min 0 W/m 25,1 km/h (4 Bft)
31.01.2015 02:38 1,8 C 0,6 C 96 % 978,0 hPa 0,0 l/m 0 min 0 min 0 W/m 23,0 km/h (4 Bft)
31.01.2015 02:40 1,8 C 0,6 C 96 % 978,0 hPa 0,0 l/m 0 min 0 min 0 W/m 25,1 km/h (4 Bft)
31.01.2015 02:42 1,8 C 0,6 C 96 % 978,0 hPa 0,0 l/m 0 min 0 min 0 W/m 25,1 km/h (4 Bft)
31.01.2015 02:44 1,8 C 0,6 C 96 % 978,0 hPa 0,0 l/m 0 min 0 min 0 W/m 18,8 km/h (3 Bft)
31.01.2015 02:46 1,8 C 0,6 C 96 % 978,1 hPa 0,0 l/m 0 min 0 min 0 W/m 23,0 km/h (4 Bft)
31.01.2015 02:48 1,8 C 0,6 C 96 % 978,0 hPa 0,0 l/m 0 min 0 min 0 W/m 23,0 km/h (4 Bft)
31.01.2015 02:50 1,8 C 0,6 C 96 % 978,1 hPa 0,0 l/m 0 min 0 min 0 W/m 20,9 km/h (4 Bft)
31.01.2015 02:52 1,8 C 0,6 C 96 % 978,0 hPa 0,0 l/m 0 min 0 min 0 W/m 23,0 km/h (4 Bft)
31.01.2015 02:54 1,8 C 0,6 C 96 % 978,0 hPa 0,0 l/m 0 min 0 min 0 W/m 20,9 km/h (4 Bft)
31.01.2015 02:56 1,8 C 0,6 C 96 % 978,0 hPa 0,0 l/m 0 min 0 min 0 W/m 20,9 km/h (4 Bft)
31.01.2015 02:58 1,8 C 0,6 C 96 % 978,0 hPa 0,0 l/m 0 min 0 min 0 W/m 25,1 km/h (4 Bft)
31.01.2015 03:00 1,8 C 0,6 C 96 % 978,1 hPa 0,0 l/m 0 min 0 min 0 W/m 16,7 km/h (3 Bft)
31.01.2015 03:02 1,8 C 0,6 C 96 % 978,1 hPa 0,0 l/m 0 min 0 min 0 W/m 16,7 km/h (3 Bft)
31.01.2015 03:04 1,8 C 0,6 C 96 % 978,1 hPa 0,0 l/m 0 min 0 min 0 W/m 16,7 km/h (3 Bft)
31.01.2015 03:06 1,8 C 0,6 C 96 % 978,1 hPa 0,0 l/m 0 min 0 min 0 W/m 20,9 km/h (4 Bft)
31.01.2015 03:08 1,8 C 0,6 C 96 % 978,1 hPa 0,0 l/m 0 min 0 min 0 W/m 20,9 km/h (4 Bft)
31.01.2015 03:10 1,8 C 0,6 C 96 % 978,1 hPa 0,0 l/m 0 min 0 min 0 W/m 14,6 km/h (3 Bft)
31.01.2015 03:12 1,8 C 0,6 C 96 % 978,2 hPa 0,0 l/m 0 min 0 min 0 W/m 23,0 km/h (4 Bft)
31.01.2015 03:14 1,8 C 0,6 C 96 % 978,1 hPa 0,0 l/m 0 min 0 min 0 W/m 16,7 km/h (3 Bft)
31.01.2015 03:16 1,8 C 0,6 C 96 % 978,2 hPa 0,0 l/m 0 min 0 min 0 W/m 23,0 km/h (4 Bft)
31.01.2015 03:18 1,8 C 0,6 C 96 % 978,2 hPa 0,0 l/m 0 min 0 min 0 W/m 23,0 km/h (4 Bft)
31.01.2015 03:20 1,8 C 0,6 C 95 % 978,1 hPa 0,0 l/m 0 min 0 min 0 W/m 27,2 km/h (4 Bft)
31.01.2015 03:22 1,8 C 0,6 C 95 % 978,2 hPa 0,0 l/m 0 min 0 min 0 W/m 20,9 km/h (4 Bft)
31.01.2015 03:24 1,8 C 0,6 C 95 % 978,2 hPa 0,0 l/m 0 min 0 min 0 W/m 20,9 km/h (4 Bft)
31.01.2015 03:26 1,8 C 0,6 C 95 % 978,3 hPa 0,0 l/m 0 min 0 min 0 W/m 18,8 km/h (3 Bft)
31.01.2015 03:28 1,7 C 0,6 C 95 % 978,3 hPa 0,0 l/m 0 min 0 min 0 W/m 18,8 km/h (3 Bft)
31.01.2015 03:30 1,7 C 0,0 C 95 % 978,2 hPa 0,0 l/m 0 min 0 min 0 W/m 18,8 km/h (3 Bft)
31.01.2015 03:32 1,7 C 0,0 C 95 % 978,2 hPa 0,0 l/m 0 min 0 min 0 W/m 23,0 km/h (4 Bft)
31.01.2015 03:34 1,7 C 0,0 C 95 % 978,3 hPa 0,0 l/m 0 min 0 min 0 W/m 18,8 km/h (3 Bft)
31.01.2015 03:36 1,7 C 0,0 C 95 % 978,3 hPa 0,0 l/m 0 min 0 min 0 W/m 20,9 km/h (4 Bft)
31.01.2015 03:38 1,6 C 0,0 C 95 % 978,4 hPa 0,0 l/m 0 min 0 min 0 W/m 20,9 km/h (4 Bft)
31.01.2015 03:40 1,6 C 0,0 C 95 % 978,3 hPa 0,0 l/m 0 min 0 min 0 W/m 18,8 km/h (3 Bft)
31.01.2015 03:42 1,6 C 0,0 C 95 % 978,4 hPa 0,0 l/m 0 min 0 min 0 W/m 25,1 km/h (4 Bft)
31.01.2015 03:44 1,6 C 0,6 C 95 % 978,4 hPa 0,0 l/m 0 min 0 min 0 W/m 23,0 km/h (4 Bft)
31.01.2015 03:46 1,6 C 0,6 C 95 % 978,4 hPa 0,0 l/m 0 min 0 min 0 W/m 18,8 km/h (3 Bft)
31.01.2015 03:48 1,6 C 0,6 C 95 % 978,4 hPa 0,0 l/m 0 min 0 min 0 W/m 20,9 km/h (4 Bft)
31.01.2015 03:50 1,6 C 0,6 C 95 % 978,4 hPa 0,0 l/m 0 min 0 min 0 W/m 20,9 km/h (4 Bft)
31.01.2015 03:52 1,6 C 0,6 C 95 % 978,3 hPa 0,0 l/m 0 min 0 min 0 W/m 25,1 km/h (4 Bft)
31.01.2015 03:54 1,6 C 0,6 C 95 % 978,4 hPa 0,0 l/m 0 min 0 min 0 W/m 18,8 km/h (3 Bft)
31.01.2015 03:56 1,6 C 0,6 C 95 % 978,4 hPa 0,0 l/m 0 min 0 min 0 W/m 14,6 km/h (3 Bft)
31.01.2015 03:58 1,6 C 0,6 C 95 % 978,4 hPa 0,0 l/m 0 min 0 min 0 W/m 23,0 km/h (4 Bft)
31.01.2015 04:00 1,6 C 0,6 C 95 % 978,4 hPa 0,0 l/m 0 min 0 min 0 W/m 23,0 km/h (4 Bft)
31.01.2015 04:05 1,6 C 0,6 C 95 % 978,4 hPa 0,0 l/m 0 min 0 min 0 W/m 20,9 km/h (4 Bft)
31.01.2015 04:06 1,6 C 0,6 C 95 % 978,4 hPa 0,0 l/m 0 min 0 min 0 W/m 14,6 km/h (3 Bft)
31.01.2015 04:11 1,7 C 0,6 C 95 % 978,4 hPa 0,0 l/m 0 min 0 min 0 W/m 20,9 km/h (4 Bft)
31.01.2015 04:12 1,7 C 0,6 C 95 % 978,4 hPa 0,0 l/m 0 min 0 min 0 W/m 14,6 km/h (3 Bft)
31.01.2015 04:14 1,7 C 0,6 C 95 % 978,5 hPa 0,0 l/m 0 min 0 min 0 W/m 18,8 km/h (3 Bft)
31.01.2015 04:16 1,7 C 0,6 C 95 % 978,5 hPa 0,0 l/m 0 min 0 min 0 W/m 18,8 km/h (3 Bft)
31.01.2015 04:18 1,6 C 0,6 C 95 % 978,4 hPa 0,0 l/m 0 min 0 min 0 W/m 18,8 km/h (3 Bft)
31.01.2015 04:20 1,6 C 0,6 C 95 % 978,5 hPa 0,0 l/m 0 min 0 min 0 W/m 25,1 km/h (4 Bft)
31.01.2015 04:22 1,6 C 0,6 C 95 % 978,5 hPa 0,0 l/m 0 min 0 min 0 W/m 20,9 km/h (4 Bft)
31.01.2015 04:24 1,6 C 0,6 C 95 % 978,5 hPa 0,0 l/m 0 min 0 min 0 W/m 20,9 km/h (4 Bft)
31.01.2015 04:26 1,6 C 0,6 C 95 % 978,5 hPa 0,0 l/m 0 min 0 min 0 W/m 18,8 km/h (3 Bft)
31.01.2015 04:28 1,6 C 0,6 C 95 % 978,5 hPa 0,0 l/m 0 min 0 min 0 W/m 25,1 km/h (4 Bft)
31.01.2015 04:30 1,6 C 0,6 C 95 % 978,5 hPa 0,0 l/m 0 min 0 min 0 W/m 18,8 km/h (3 Bft)
31.01.2015 04:32 1,6 C 0,6 C 95 % 978,5 hPa 0,0 l/m 0 min 0 min 0 W/m 16,7 km/h (3 Bft)
31.01.2015 04:34 1,6 C 0,6 C 95 % 978,5 hPa 0,0 l/m 0 min 0 min 0 W/m 12,6 km/h (3 Bft)
31.01.2015 04:36 1,6 C 0,6 C 95 % 978,5 hPa 0,0 l/m 0 min 0 min 0 W/m 14,6 km/h (3 Bft)
31.01.2015 04:38 1,6 C 0,6 C 95 % 978,4 hPa 0,0 l/m 0 min 0 min 0 W/m 14,6 km/h (3 Bft)
31.01.2015 04:40 1,6 C 0,6 C 95 % 978,5 hPa 0,0 l/m 0 min 0 min 0 W/m 25,1 km/h (4 Bft)
31.01.2015 04:42 1,6 C 0,6 C 95 % 978,4 hPa 0,0 l/m 0 min 0 min 0 W/m 20,9 km/h (4 Bft)
31.01.2015 04:44 1,6 C 0,6 C 95 % 978,5 hPa 0,0 l/m 0 min 0 min 0 W/m 14,6 km/h (3 Bft)
31.01.2015 04:46 1,6 C 0,6 C 95 % 978,5 hPa 0,0 l/m 0 min 0 min 0 W/m 16,7 km/h (3 Bft)
31.01.2015 04:48 1,6 C 0,6 C 95 % 978,5 hPa 0,0 l/m 0 min 0 min 0 W/m 23,0 km/h (4 Bft)
31.01.2015 04:50 1,6 C 0,6 C 95 % 978,5 hPa 0,0 l/m 0 min 0 min 0 W/m 23,0 km/h (4 Bft)
31.01.2015 04:52 1,6 C 0,6 C 95 % 978,5 hPa 0,0 l/m 0 min 0 min 0 W/m 23,0 km/h (4 Bft)
31.01.2015 04:54 1,6 C 0,6 C 95 % 978,5 hPa 0,0 l/m 0 min 0 min 0 W/m 16,7 km/h (3 Bft)
31.01.2015 04:56 1,6 C 0,6 C 95 % 978,5 hPa 0,0 l/m 0 min 0 min 0 W/m 16,7 km/h (3 Bft)
31.01.2015 04:58 1,6 C 0,6 C 95 % 978,5 hPa 0,0 l/m 0 min 0 min 0 W/m 18,8 km/h (3 Bft)
31.01.2015 05:00 1,6 C 0,6 C 95 % 978,4 hPa 0,0 l/m 0 min 0 min 0 W/m 29,3 km/h (5 Bft)
31.01.2015 05:02 1,7 C 0,6 C 95 % 978,5 hPa 0,0 l/m 0 min 0 min 0 W/m 18,8 km/h (3 Bft)
31.01.2015 05:04 1,6 C 0,6 C 95 % 978,4 hPa 0,0 l/m 0 min 0 min 0 W/m 20,9 km/h (4 Bft)
31.01.2015 05:06 1,6 C 0,6 C 95 % 978,4 hPa 0,0 l/m 0 min 0 min 0 W/m 14,6 km/h (3 Bft)
31.01.2015 05:08 1,6 C 0,0 C 95 % 978,5 hPa 0,0 l/m 0 min 0 min 0 W/m 20,9 km/h (4 Bft)
31.01.2015 05:10 1,6 C 0,0 C 95 % 978,5 hPa 0,0 l/m 0 min 0 min 0 W/m 16,7 km/h (3 Bft)
31.01.2015 05:12 1,6 C 0,0 C 95 % 978,5 hPa 0,0 l/m 0 min 0 min 0 W/m 20,9 km/h (4 Bft)
31.01.2015 05:14 1,6 C 0,0 C 96 % 978,5 hPa 0,0 l/m 0 min 0 min 0 W/m 12,6 km/h (3 Bft)
31.01.2015 05:16 1,6 C 0,0 C 96 % 978,5 hPa 0,0 l/m 0 min 0 min 0 W/m 23,0 km/h (4 Bft)
31.01.2015 05:18 1,6 C 0,0 C 96 % 978,6 hPa 0,0 l/m 0 min 0 min 0 W/m 20,9 km/h (4 Bft)
31.01.2015 05:20 1,6 C 0,0 C 95 % 978,6 hPa 0,0 l/m 0 min 0 min 0 W/m 18,8 km/h (3 Bft)
31.01.2015 05:22 1,5 C 0,0 C 95 % 978,5 hPa 0,0 l/m 0 min 0 min 0 W/m 16,7 km/h (3 Bft)
31.01.2015 05:24 1,5 C 0,0 C 95 % 978,6 hPa 0,0 l/m 0 min 0 min 0 W/m 20,9 km/h (4 Bft)
31.01.2015 05:26 1,5 C 0,0 C 96 % 978,6 hPa 0,0 l/m 0 min 0 min 0 W/m 20,9 km/h (4 Bft)
31.01.2015 05:28 1,4 C 0,0 C 96 % 978,6 hPa 0,0 l/m 0 min 0 min 0 W/m 20,9 km/h (4 Bft)
31.01.2015 05:30 1,4 C 0,0 C 96 % 978,6 hPa 0,0 l/m 0 min 0 min 0 W/m 14,6 km/h (3 Bft)
31.01.2015 05:32 1,4 C 0,0 C 96 % 978,6 hPa 0,0 l/m 0 min 0 min 0 W/m 12,6 km/h (3 Bft)
31.01.2015 05:34 1,4 C 0,0 C 96 % 978,7 hPa 0,0 l/m 0 min 0 min 0 W/m 16,7 km/h (3 Bft)
31.01.2015 05:36 1,4 C 0,0 C 96 % 978,6 hPa 0,0 l/m 0 min 0 min 0 W/m 18,8 km/h (3 Bft)
31.01.2015 05:38 1,4 C 0,0 C 96 % 978,8 hPa 0,0 l/m 0 min 0 min 0 W/m 16,7 km/h (3 Bft)
31.01.2015 05:40 1,4 C 0,0 C 96 % 978,8 hPa 0,0 l/m 0 min 0 min 0 W/m 12,6 km/h (3 Bft)
31.01.2015 05:42 1,4 C 0,0 C 96 % 978,7 hPa 0,0 l/m 0 min 0 min 0 W/m 14,6 km/h (3 Bft)
31.01.2015 05:44 1,4 C 0,0 C 96 % 978,8 hPa 0,0 l/m 0 min 0 min 0 W/m 25,1 km/h (4 Bft)
31.01.2015 05:46 1,4 C 0,0 C 96 % 978,8 hPa 0,0 l/m 0 min 0 min 0 W/m 23,0 km/h (4 Bft)
31.01.2015 05:48 1,4 C 0,0 C 95 % 978,8 hPa 0,0 l/m 0 min 0 min 0 W/m 18,8 km/h (3 Bft)
31.01.2015 05:50 1,3 C 0,0 C 95 % 978,8 hPa 0,0 l/m 0 min 0 min 0 W/m 23,0 km/h (4 Bft)
31.01.2015 05:52 1,3 C 0,0 C 95 % 978,8 hPa 0,0 l/m 0 min 0 min 0 W/m 18,8 km/h (3 Bft)
31.01.2015 05:54 1,3 C 0,0 C 95 % 978,9 hPa 0,0 l/m 0 min 0 min 0 W/m 20,9 km/h (4 Bft)
31.01.2015 05:56 1,3 C 0,0 C 95 % 978,9 hPa 0,0 l/m 0 min 0 min 0 W/m 18,8 km/h (3 Bft)
31.01.2015 05:58 1,3 C 0,0 C 95 % 978,9 hPa 0,0 l/m 0 min 0 min 0 W/m 23,0 km/h (4 Bft)
31.01.2015 06:00 1,3 C 0,0 C 95 % 978,9 hPa 0,0 l/m 0 min 0 min 0 W/m 18,8 km/h (3 Bft)
31.01.2015 06:02 1,3 C 0,0 C 95 % 978,9 hPa 0,0 l/m 0 min 0 min 0 W/m 20,9 km/h (4 Bft)
31.01.2015 06:06 1,2 C -0,6 C 95 % 978,9 hPa 0,0 l/m 0 min 0 min 0 W/m 20,9 km/h (4 Bft)
31.01.2015 06:08 1,2 C -0,6 C 95 % 978,9 hPa 0,0 l/m 0 min 0 min 0 W/m 18,8 km/h (3 Bft)
31.01.2015 06:10 1,2 C -0,6 C 95 % 979,0 hPa 0,0 l/m 0 min 0 min 0 W/m 18,8 km/h (3 Bft)
31.01.2015 06:12 1,2 C -0,6 C 95 % 979,0 hPa 0,0 l/m 0 min 0 min 0 W/m 18,8 km/h (3 Bft)
31.01.2015 06:14 1,1 C -0,6 C 95 % 979,0 hPa 0,0 l/m 0 min 0 min 0 W/m 16,7 km/h (3 Bft)
31.01.2015 06:16 1,1 C -0,6 C 95 % 979,0 hPa 0,0 l/m 0 min 0 min 0 W/m 14,6 km/h (3 Bft)
31.01.2015 06:18 1,1 C -0,6 C 95 % 979,0 hPa 0,0 l/m 0 min 0 min 0 W/m 14,6 km/h (3 Bft)
31.01.2015 06:20 1,1 C -0,6 C 95 % 979,0 hPa 0,0 l/m 0 min 0 min 0 W/m 14,6 km/h (3 Bft)
31.01.2015 06:22 1,1 C -0,6 C 95 % 979,0 hPa 0,0 l/m 0 min 0 min 0 W/m 14,6 km/h (3 Bft)
31.01.2015 06:24 1,1 C -0,6 C 95 % 979,0 hPa 0,0 l/m 0 min 0 min 0 W/m 18,8 km/h (3 Bft)
31.01.2015 06:26 1,0 C -0,6 C 95 % 979,1 hPa 0,0 l/m 0 min 0 min 0 W/m 18,8 km/h (3 Bft)
31.01.2015 06:28 1,0 C -0,6 C 95 % 979,1 hPa 0,0 l/m 0 min 0 min 0 W/m 16,7 km/h (3 Bft)
31.01.2015 06:30 1,0 C -0,6 C 95 % 979,1 hPa 0,0 l/m 0 min 0 min 0 W/m 14,6 km/h (3 Bft)
31.01.2015 06:32 1,0 C -0,6 C 95 % 979,1 hPa 0,0 l/m 0 min 0 min 0 W/m 14,6 km/h (3 Bft)
31.01.2015 06:34 1,0 C -0,6 C 95 % 979,1 hPa 0,0 l/m 0 min 0 min 0 W/m 14,6 km/h (3 Bft)
31.01.2015 06:36 0,9 C -0,6 C 95 % 979,2 hPa 0,0 l/m 0 min 0 min 0 W/m 16,7 km/h (3 Bft)
31.01.2015 06:38 0,9 C -0,6 C 95 % 979,2 hPa 0,0 l/m 0 min 0 min 0 W/m 16,7 km/h (3 Bft)
31.01.2015 06:40 0,9 C -0,6 C 95 % 979,2 hPa 0,0 l/m 0 min 0 min 0 W/m 14,6 km/h (3 Bft)
31.01.2015 06:42 0,9 C -0,6 C 95 % 979,3 hPa 0,0 l/m 0 min 0 min 0 W/m 18,8 km/h (3 Bft)
31.01.2015 06:44 0,9 C -0,6 C 95 % 979,3 hPa 0,0 l/m 0 min 0 min 0 W/m 12,6 km/h (3 Bft)
31.01.2015 06:46 0,9 C -0,6 C 95 % 979,2 hPa 0,0 l/m 0 min 0 min 0 W/m 16,7 km/h (3 Bft)
31.01.2015 06:48 0,9 C -0,6 C 95 % 979,3 hPa 0,0 l/m 0 min 0 min 0 W/m 14,6 km/h (3 Bft)
31.01.2015 06:50 0,8 C -0,6 C 95 % 979,3 hPa 0,0 l/m 0 min 0 min 0 W/m 16,7 km/h (3 Bft)
31.01.2015 06:52 0,8 C -0,6 C 95 % 979,3 hPa 0,0 l/m 0 min 0 min 0 W/m 16,7 km/h (3 Bft)
31.01.2015 06:54 0,8 C -0,6 C 95 % 979,3 hPa 0,0 l/m 0 min 0 min 0 W/m 10,5 km/h (2 Bft)
31.01.2015 06:56 0,8 C -0,6 C 95 % 979,3 hPa 0,0 l/m 0 min 0 min 0 W/m 16,7 km/h (3 Bft)
31.01.2015 06:58 0,8 C -0,6 C 95 % 979,3 hPa 0,0 l/m 0 min 0 min 0 W/m 16,7 km/h (3 Bft)
31.01.2015 07:00 0,8 C -0,6 C 95 % 979,4 hPa 0,0 l/m 0 min 0 min 0 W/m 14,6 km/h (3 Bft)
31.01.2015 07:02 0,8 C -0,6 C 95 % 979,4 hPa 0,0 l/m 0 min 0 min 0 W/m 12,6 km/h (3 Bft)
31.01.2015 07:04 0,8 C -0,6 C 95 % 979,4 hPa 0,0 l/m 0 min 0 min 0 W/m 20,9 km/h (4 Bft)
31.01.2015 07:06 0,8 C -0,6 C 95 % 979,4 hPa 0,0 l/m 0 min 0 min 0 W/m 14,6 km/h (3 Bft)
31.01.2015 07:08 0,8 C -0,6 C 95 % 979,4 hPa 0,0 l/m 0 min 0 min 0 W/m 16,7 km/h (3 Bft)
31.01.2015 07:10 0,8 C -0,6 C 95 % 979,5 hPa 0,0 l/m 0 min 0 min 0 W/m 16,7 km/h (3 Bft)
31.01.2015 07:12 0,8 C 0,0 C 95 % 979,4 hPa 0,0 l/m 0 min 0 min 0 W/m 14,6 km/h (3 Bft)
31.01.2015 07:14 0,8 C 0,0 C 95 % 979,5 hPa 0,0 l/m 0 min 0 min 0 W/m 16,7 km/h (3 Bft)
31.01.2015 07:16 0,8 C 0,0 C 96 % 979,5 hPa 0,0 l/m 0 min 0 min 0 W/m 12,6 km/h (3 Bft)
31.01.2015 07:18 0,8 C 0,0 C 96 % 979,5 hPa 0,0 l/m 0 min 0 min 0 W/m 20,9 km/h (4 Bft)
31.01.2015 07:20 0,8 C 0,0 C 96 % 979,5 hPa 0,0 l/m 0 min 0 min 0 W/m 14,6 km/h (3 Bft)
31.01.2015 07:22 0,8 C 0,0 C 95 % 979,5 hPa 0,0 l/m 0 min 0 min 0 W/m 18,8 km/h (3 Bft)
31.01.2015 07:24 0,9 C 0,0 C 95 % 979,5 hPa 0,0 l/m 0 min 0 min 0 W/m 12,6 km/h (3 Bft)
31.01.2015 07:26 0,9 C 0,0 C 95 % 979,5 hPa 0,0 l/m 0 min 0 min 0 W/m 14,6 km/h (3 Bft)
31.01.2015 07:28 0,9 C 0,0 C 96 % 979,5 hPa 0,0 l/m 0 min 0 min 0 W/m 14,6 km/h (3 Bft)
31.01.2015 07:30 0,9 C 0,0 C 96 % 979,6 hPa 0,0 l/m 0 min 0 min 0 W/m 14,6 km/h (3 Bft)
31.01.2015 07:32 0,9 C -0,6 C 96 % 979,6 hPa 0,0 l/m 0 min 0 min 0 W/m 14,6 km/h (3 Bft)
31.01.2015 07:34 0,9 C -0,6 C 96 % 979,7 hPa 0,0 l/m 0 min 0 min 0 W/m 16,7 km/h (3 Bft)
31.01.2015 07:36 0,9 C -0,6 C 96 % 979,7 hPa 0,0 l/m 0 min 0 min 0 W/m 16,7 km/h (3 Bft)
31.01.2015 07:38 0,9 C -0,6 C 96 % 979,8 hPa 0,0 l/m 0 min 0 min 0 W/m 16,7 km/h (3 Bft)
31.01.2015 07:40 0,9 C -0,6 C 96 % 979,8 hPa 0,0 l/m 0 min 0 min 0 W/m 16,7 km/h (3 Bft)
31.01.2015 07:42 0,9 C -0,6 C 96 % 979,8 hPa 0,0 l/m 0 min 0 min 0 W/m 18,8 km/h (3 Bft)
31.01.2015 07:44 0,8 C -0,6 C 96 % 979,8 hPa 0,0 l/m 0 min 0 min 0 W/m 18,8 km/h (3 Bft)
31.01.2015 07:46 0,8 C -0,6 C 96 % 979,8 hPa 0,0 l/m 0 min 0 min 0 W/m 14,6 km/h (3 Bft)
31.01.2015 07:48 0,8 C -0,6 C 96 % 979,8 hPa 0,0 l/m 0 min 0 min 0 W/m 14,6 km/h (3 Bft)
31.01.2015 07:50 0,8 C -0,6 C 96 % 979,8 hPa 0,0 l/m 0 min 0 min 0 W/m 12,6 km/h (3 Bft)
31.01.2015 07:52 0,8 C -0,6 C 96 % 979,8 hPa 0,0 l/m 0 min 0 min 0 W/m 14,6 km/h (3 Bft)
31.01.2015 07:54 0,7 C -0,6 C 96 % 979,8 hPa 0,0 l/m 0 min 0 min 0 W/m 12,6 km/h (3 Bft)
31.01.2015 07:56 0,7 C -0,6 C 96 % 979,8 hPa 0,0 l/m 0 min 0 min 0 W/m 14,6 km/h (3 Bft)
31.01.2015 07:58 0,7 C -0,6 C 96 % 979,9 hPa 0,0 l/m 0 min 0 min 0 W/m 14,6 km/h (3 Bft)
31.01.2015 08:00 0,7 C -0,6 C 95 % 979,9 hPa 0,0 l/m 0 min 0 min 0 W/m 12,6 km/h (3 Bft)
31.01.2015 08:02 0,7 C -0,6 C 95 % 979,9 hPa 0,0 l/m 0 min 0 min 0 W/m 12,6 km/h (3 Bft)
31.01.2015 08:04 0,6 C -1,1 C 95 % 979,9 hPa 0,0 l/m 0 min 0 min 0 W/m 14,6 km/h (3 Bft)
31.01.2015 08:06 0,6 C -1,1 C 95 % 980,0 hPa 0,0 l/m 0 min 0 min 0 W/m 10,5 km/h (2 Bft)
31.01.2015 08:08 0,5 C -1,1 C 95 % 980,1 hPa 0,0 l/m 0 min 0 min 0 W/m 14,6 km/h (3 Bft)
31.01.2015 08:10 0,5 C -0,6 C 95 % 980,0 hPa 0,0 l/m 0 min 0 min 0 W/m 14,6 km/h (3 Bft)
31.01.2015 08:12 0,5 C -0,6 C 95 % 980,1 hPa 0,0 l/m 0 min 0 min 3 W/m 12,6 km/h (3 Bft)
31.01.2015 08:14 0,5 C -0,6 C 95 % 980,0 hPa 0,0 l/m 0 min 0 min 5 W/m 14,6 km/h (3 Bft)
31.01.2015 08:16 0,5 C -0,6 C 95 % 980,2 hPa 0,0 l/m 0 min 0 min 5 W/m 12,6 km/h (3 Bft)
31.01.2015 08:18 0,5 C -0,6 C 95 % 980,1 hPa 0,0 l/m 0 min 0 min 5 W/m 14,6 km/h (3 Bft)
31.01.2015 08:20 0,5 C -0,6 C 95 % 980,1 hPa 0,0 l/m 0 min 0 min 5 W/m 10,5 km/h (2 Bft)
31.01.2015 08:22 0,5 C -0,6 C 95 % 980,2 hPa 0,0 l/m 0 min 0 min 5 W/m 12,6 km/h (3 Bft)
31.01.2015 08:24 0,5 C -0,6 C 95 % 980,2 hPa 0,0 l/m 0 min 0 min 7 W/m 16,7 km/h (3 Bft)
31.01.2015 08:26 0,5 C -0,6 C 95 % 980,2 hPa 0,0 l/m 0 min 0 min 7 W/m 12,6 km/h (3 Bft)
31.01.2015 08:28 0,5 C -0,6 C 95 % 980,3 hPa 0,0 l/m 0 min 0 min 9 W/m 14,6 km/h (3 Bft)
31.01.2015 08:30 0,5 C -0,6 C 95 % 980,2 hPa 0,0 l/m 0 min 0 min 11 W/m 10,5 km/h (2 Bft)
31.01.2015 08:32 0,5 C -0,6 C 95 % 980,2 hPa 0,0 l/m 0 min 0 min 11 W/m 14,6 km/h (3 Bft)
31.01.2015 08:34 0,5 C -0,6 C 95 % 980,2 hPa 0,0 l/m 0 min 0 min 11 W/m 8,4 km/h (2 Bft)
31.01.2015 08:36 0,5 C -0,6 C 95 % 980,2 hPa 0,0 l/m 0 min 0 min 11 W/m 8,4 km/h (2 Bft)
31.01.2015 08:38 0,5 C -0,6 C 95 % 980,2 hPa 0,0 l/m 0 min 0 min 14 W/m 8,4 km/h (2 Bft)
31.01.2015 08:40 0,5 C -0,6 C 95 % 980,2 hPa 0,0 l/m 0 min 0 min 15 W/m 8,4 km/h (2 Bft)
31.01.2015 08:42 0,5 C -0,6 C 95 % 980,4 hPa 0,0 l/m 0 min 0 min 17 W/m 16,7 km/h (3 Bft)
31.01.2015 08:44 0,5 C -0,6 C 95 % 980,4 hPa 0,0 l/m 0 min 0 min 15 W/m 16,7 km/h (3 Bft)
31.01.2015 08:46 0,5 C -0,6 C 95 % 980,5 hPa 0,0 l/m 0 min 0 min 14 W/m 16,7 km/h (3 Bft)
31.01.2015 08:48 0,5 C -0,6 C 95 % 980,6 hPa 0,0 l/m 0 min 0 min 12 W/m 16,7 km/h (3 Bft)
31.01.2015 08:50 0,5 C -0,6 C 96 % 980,5 hPa 0,0 l/m 0 min 0 min 14 W/m 14,6 km/h (3 Bft)
31.01.2015 08:52 0,5 C -0,6 C 96 % 980,5 hPa 0,0 l/m 0 min 0 min 17 W/m 16,7 km/h (3 Bft)
31.01.2015 08:54 0,5 C -0,6 C 96 % 980,5 hPa 0,0 l/m 0 min 0 min 20 W/m 14,6 km/h (3 Bft)
31.01.2015 08:56 0,5 C -0,6 C 96 % 980,5 hPa 0,0 l/m 0 min 0 min 22 W/m 12,6 km/h (3 Bft)
31.01.2015 08:58 0,5 C -0,6 C 96 % 980,5 hPa 0,0 l/m 0 min 0 min 21 W/m 16,7 km/h (3 Bft)
31.01.2015 09:00 0,5 C -0,6 C 96 % 980,6 hPa 0,0 l/m 0 min 0 min 21 W/m 14,6 km/h (3 Bft)
31.01.2015 09:02 0,5 C -0,6 C 96 % 980,6 hPa 0,0 l/m 0 min 0 min 21 W/m 16,7 km/h (3 Bft)
31.01.2015 09:04 0,5 C -0,6 C 96 % 980,6 hPa 0,0 l/m 0 min 0 min 22 W/m 12,6 km/h (3 Bft)
31.01.2015 09:06 0,5 C -0,6 C 96 % 980,6 hPa 0,0 l/m 0 min 0 min 26 W/m 16,7 km/h (3 Bft)
31.01.2015 09:08 0,5 C -0,6 C 96 % 980,6 hPa 0,0 l/m 0 min 0 min 29 W/m 16,7 km/h (3 Bft)
31.01.2015 09:10 0,5 C -0,6 C 96 % 980,6 hPa 0,0 l/m 0 min 0 min 44 W/m 16,7 km/h (3 Bft)
31.01.2015 09:12 0,5 C -0,6 C 96 % 980,6 hPa 0,0 l/m 0 min 0 min 59 W/m 18,8 km/h (3 Bft)
31.01.2015 09:14 0,5 C -0,6 C 96 % 980,6 hPa 0,0 l/m 2 min 0 min 64 W/m 14,6 km/h (3 Bft)
31.01.2015 09:16 0,5 C -0,6 C 96 % 980,7 hPa 0,0 l/m 2 min 0 min 70 W/m 14,6 km/h (3 Bft)
31.01.2015 09:18 0,5 C -0,6 C 96 % 980,5 hPa 0,0 l/m 2 min 0 min 76 W/m 14,6 km/h (3 Bft)
31.01.2015 09:20 0,5 C -0,6 C 96 % 980,6 hPa 0,0 l/m 2 min 0 min 85 W/m 14,6 km/h (3 Bft)
31.01.2015 09:22 0,5 C -0,6 C 96 % 980,5 hPa 0,0 l/m 2 min 0 min 101 W/m 14,6 km/h (3 Bft)
31.01.2015 09:24 0,5 C -0,6 C 96 % 980,5 hPa 0,0 l/m 2 min 0 min 117 W/m 8,4 km/h (2 Bft)
31.01.2015 09:26 0,6 C 0,0 C 96 % 980,5 hPa 0,0 l/m 2 min 0 min 116 W/m 12,6 km/h (3 Bft)
31.01.2015 09:28 0,6 C 0,0 C 96 % 980,5 hPa 0,0 l/m 2 min 0 min 107 W/m 16,7 km/h (3 Bft)
31.01.2015 09:30 0,6 C 0,0 C 96 % 980,5 hPa 0,0 l/m 0 min 0 min 64 W/m 16,7 km/h (3 Bft)
31.01.2015 09:32 0,7 C 0,0 C 96 % 980,6 hPa 0,0 l/m 0 min 0 min 53 W/m 14,6 km/h (3 Bft)
31.01.2015 09:34 0,7 C -0,6 C 96 % 980,7 hPa 0,0 l/m 0 min 0 min 47 W/m 18,8 km/h (3 Bft)
31.01.2015 09:36 0,7 C 0,0 C 96 % 980,7 hPa 0,0 l/m 0 min 0 min 53 W/m 14,6 km/h (3 Bft)
31.01.2015 09:38 0,7 C -0,6 C 96 % 980,7 hPa 0,0 l/m 0 min 0 min 60 W/m 18,8 km/h (3 Bft)
31.01.2015 09:40 0,8 C -0,6 C 96 % 980,7 hPa 0,0 l/m 0 min 0 min 58 W/m 14,6 km/h (3 Bft)
31.01.2015 09:42 0,8 C -0,6 C 96 % 980,7 hPa 0,0 l/m 0 min 0 min 49 W/m 12,6 km/h (3 Bft)
31.01.2015 09:44 0,8 C -0,6 C 96 % 980,7 hPa 0,0 l/m 0 min 0 min 41 W/m 10,5 km/h (2 Bft)
31.01.2015 09:46 0,8 C -0,6 C 96 % 980,8 hPa 0,0 l/m 0 min 0 min 38 W/m 10,5 km/h (2 Bft)
31.01.2015 09:48 0,8 C -0,6 C 96 % 980,7 hPa 0,0 l/m 0 min 0 min 37 W/m 14,6 km/h (3 Bft)
31.01.2015 09:50 0,8 C -0,6 C 96 % 980,8 hPa 0,0 l/m 0 min 0 min 37 W/m 16,7 km/h (3 Bft)
31.01.2015 09:52 0,8 C -0,6 C 96 % 980,7 hPa 0,0 l/m 0 min 0 min 38 W/m 12,6 km/h (3 Bft)
31.01.2015 09:54 0,8 C -0,6 C 96 % 980,7 hPa 0,0 l/m 0 min 0 min 40 W/m 16,7 km/h (3 Bft)
31.01.2015 09:56 0,8 C -0,6 C 96 % 980,7 hPa 0,0 l/m 0 min 0 min 55 W/m 16,7 km/h (3 Bft)
31.01.2015 09:58 0,8 C 0,0 C 96 % 980,7 hPa 0,0 l/m 0 min 0 min 65 W/m 18,8 km/h (3 Bft)
31.01.2015 10:00 0,8 C 0,0 C 96 % 980,7 hPa 0,0 l/m 0 min 0 min 85 W/m 23,0 km/h (4 Bft)
31.01.2015 10:02 0,9 C 0,0 C 96 % 980,7 hPa 0,0 l/m 2 min 0 min 154 W/m 18,8 km/h (3 Bft)
31.01.2015 10:04 0,9 C 0,0 C 96 % 980,7 hPa 0,0 l/m 2 min 0 min 148 W/m 18,8 km/h (3 Bft)
31.01.2015 10:06 0,9 C 0,0 C 96 % 980,7 hPa 0,0 l/m 2 min 0 min 189 W/m 18,8 km/h (3 Bft)
31.01.2015 10:08 0,9 C 0,0 C 96 % 980,7 hPa 0,0 l/m 2 min 0 min 153 W/m 18,8 km/h (3 Bft)
31.01.2015 10:10 1,0 C 0,0 C 96 % 980,7 hPa 0,0 l/m 0 min 0 min 84 W/m 20,9 km/h (4 Bft)
31.01.2015 10:12 1,1 C 0,0 C 96 % 980,7 hPa 0,0 l/m 0 min 0 min 92 W/m 16,7 km/h (3 Bft)
31.01.2015 10:14 1,1 C 0,0 C 96 % 980,8 hPa 0,0 l/m 0 min 0 min 80 W/m 18,8 km/h (3 Bft)
31.01.2015 10:16 1,1 C 0,0 C 96 % 980,8 hPa 0,0 l/m 0 min 0 min 82 W/m 16,7 km/h (3 Bft)
31.01.2015 10:18 1,2 C 0,0 C 96 % 980,8 hPa 0,0 l/m 0 min 0 min 88 W/m 16,7 km/h (3 Bft)
31.01.2015 10:20 1,2 C 0,0 C 96 % 980,8 hPa 0,0 l/m 0 min 0 min 105 W/m 18,8 km/h (3 Bft)
31.01.2015 10:22 1,2 C 0,0 C 96 % 980,9 hPa 0,0 l/m 0 min 0 min 120 W/m 14,6 km/h (3 Bft)
31.01.2015 10:24 1,2 C 0,0 C 96 % 980,9 hPa 0,0 l/m 2 min 0 min 127 W/m 14,6 km/h (3 Bft)
31.01.2015 10:26 1,3 C 0,0 C 96 % 981,0 hPa 0,0 l/m 2 min 0 min 180 W/m 12,6 km/h (3 Bft)
31.01.2015 10:28 1,3 C 0,6 C 96 % 981,0 hPa 0,0 l/m 2 min 0 min 148 W/m 18,8 km/h (3 Bft)
31.01.2015 10:30 1,3 C 0,6 C 96 % 981,1 hPa 0,0 l/m 2 min 0 min 228 W/m 14,6 km/h (3 Bft)
31.01.2015 10:32 1,4 C 0,6 C 96 % 981,1 hPa 0,0 l/m 2 min 0 min 147 W/m 14,6 km/h (3 Bft)
31.01.2015 10:34 1,4 C 0,6 C 96 % 981,0 hPa 0,0 l/m 2 min 0 min 149 W/m 20,9 km/h (4 Bft)
31.01.2015 10:36 1,5 C 1,1 C 96 % 981,0 hPa 0,0 l/m 0 min 0 min 117 W/m 23,0 km/h (4 Bft)
31.01.2015 10:38 1,6 C 0,6 C 96 % 981,0 hPa 0,0 l/m 0 min 0 min 93 W/m 25,1 km/h (4 Bft)
31.01.2015 10:40 1,6 C 1,1 C 96 % 981,0 hPa 0,0 l/m 0 min 0 min 106 W/m 25,1 km/h (4 Bft)
31.01.2015 10:42 1,7 C 1,1 C 96 % 981,1 hPa 0,0 l/m 0 min 0 min 129 W/m 12,6 km/h (3 Bft)
31.01.2015 10:44 1,7 C 1,1 C 96 % 981,1 hPa 0,0 l/m 0 min 0 min 109 W/m 23,0 km/h (4 Bft)
31.01.2015 10:46 1,7 C 1,1 C 96 % 981,1 hPa 0,0 l/m 0 min 0 min 115 W/m 16,7 km/h (3 Bft)
31.01.2015 10:48 1,8 C 1,1 C 96 % 981,2 hPa 0,0 l/m 2 min 0 min 186 W/m 18,8 km/h (3 Bft)
31.01.2015 10:50 1,8 C 1,1 C 96 % 981,2 hPa 0,0 l/m 2 min 0 min 230 W/m 25,1 km/h (4 Bft)
31.01.2015 10:52 1,9 C 0,6 C 96 % 981,1 hPa 0,0 l/m 2 min 0 min 219 W/m 18,8 km/h (3 Bft)
31.01.2015 10:54 1,9 C 1,1 C 96 % 981,2 hPa 0,0 l/m 2 min 0 min 257 W/m 18,8 km/h (3 Bft)
31.01.2015 10:56 2,0 C 1,1 C 95 % 981,1 hPa 0,0 l/m 2 min 0 min 229 W/m 18,8 km/h (3 Bft)
31.01.2015 10:58 2,1 C 1,1 C 95 % 981,2 hPa 0,0 l/m 2 min 0 min 215 W/m 14,6 km/h (3 Bft)
31.01.2015 11:00 2,1 C 1,1 C 96 % 981,2 hPa 0,0 l/m 2 min 0 min 275 W/m 18,8 km/h (3 Bft)
31.01.2015 11:02 2,2 C 1,1 C 96 % 981,2 hPa 0,0 l/m 2 min 0 min 248 W/m 23,0 km/h (4 Bft)
31.01.2015 11:04 2,3 C 1,1 C 95 % 981,2 hPa 0,0 l/m 2 min 0 min 248 W/m 18,8 km/h (3 Bft)
31.01.2015 11:06 2,3 C 1,1 C 95 % 981,2 hPa 0,0 l/m 2 min 0 min 286 W/m 20,9 km/h (4 Bft)
31.01.2015 11:08 2,4 C 1,1 C 95 % 981,3 hPa 0,0 l/m 2 min 0 min 298 W/m 18,8 km/h (3 Bft)
31.01.2015 11:10 2,5 C 1,1 C 95 % 981,2 hPa 0,0 l/m 2 min 0 min 286 W/m 23,0 km/h (4 Bft)
31.01.2015 11:12 2,6 C 1,7 C 95 % 981,3 hPa 0,0 l/m 2 min 0 min 283 W/m 20,9 km/h (4 Bft)
31.01.2015 11:14 2,7 C 1,7 C 95 % 981,3 hPa 0,0 l/m 2 min 0 min 284 W/m 20,9 km/h (4 Bft)
31.01.2015 11:16 2,7 C 1,7 C 95 % 981,3 hPa 0,0 l/m 2 min 0 min 287 W/m 14,6 km/h (3 Bft)
31.01.2015 11:18 2,8 C 1,7 C 95 % 981,3 hPa 0,0 l/m 2 min 0 min 292 W/m 27,2 km/h (4 Bft)
31.01.2015 11:20 2,9 C 1,7 C 95 % 981,4 hPa 0,0 l/m 2 min 0 min 296 W/m 20,9 km/h (4 Bft)
31.01.2015 11:22 2,9 C 1,7 C 94 % 981,4 hPa 0,0 l/m 2 min 0 min 297 W/m 18,8 km/h (3 Bft)
31.01.2015 11:24 3,1 C 1,7 C 94 % 981,4 hPa 0,0 l/m 2 min 0 min 301 W/m 18,8 km/h (3 Bft)
31.01.2015 11:26 3,1 C 1,7 C 94 % 981,4 hPa 0,0 l/m 2 min 0 min 302 W/m 25,1 km/h (4 Bft)
31.01.2015 11:28 3,2 C 1,7 C 94 % 981,4 hPa 0,0 l/m 2 min 0 min 316 W/m 18,8 km/h (3 Bft)
31.01.2015 11:30 3,3 C 1,7 C 94 % 981,4 hPa 0,0 l/m 2 min 0 min 314 W/m 18,8 km/h (3 Bft)
31.01.2015 11:32 3,3 C 1,7 C 93 % 981,4 hPa 0,0 l/m 2 min 0 min 322 W/m 18,8 km/h (3 Bft)
31.01.2015 11:34 3,4 C 1,7 C 93 % 981,5 hPa 0,0 l/m 2 min 0 min 324 W/m 23,0 km/h (4 Bft)
31.01.2015 11:36 3,5 C 1,7 C 93 % 981,5 hPa 0,0 l/m 2 min 0 min 329 W/m 20,9 km/h (4 Bft)
31.01.2015 11:38 3,6 C 1,7 C 92 % 981,5 hPa 0,0 l/m 2 min 0 min 324 W/m 18,8 km/h (3 Bft)
31.01.2015 11:40 3,7 C 1,7 C 92 % 981,4 hPa 0,0 l/m 2 min 0 min 320 W/m 23,0 km/h (4 Bft)
31.01.2015 11:42 3,7 C 1,7 C 92 % 981,5 hPa 0,0 l/m 2 min 0 min 320 W/m 23,0 km/h (4 Bft)
31.01.2015 11:44 3,8 C 2,2 C 91 % 981,5 hPa 0,0 l/m 2 min 0 min 328 W/m 23,0 km/h (4 Bft)
31.01.2015 11:46 3,9 C 2,2 C 91 % 981,5 hPa 0,0 l/m 2 min 0 min 341 W/m 20,9 km/h (4 Bft)
31.01.2015 11:48 3,9 C 2,2 C 91 % 981,5 hPa 0,0 l/m 2 min 0 min 359 W/m 18,8 km/h (3 Bft)
31.01.2015 11:50 4,0 C 2,2 C 90 % 981,5 hPa 0,0 l/m 2 min 0 min 363 W/m 23,0 km/h (4 Bft)
31.01.2015 11:52 4,1 C 2,2 C 90 % 981,6 hPa 0,0 l/m 2 min 0 min 360 W/m 25,1 km/h (4 Bft)
31.01.2015 11:54 4,1 C 2,2 C 89 % 981,5 hPa 0,0 l/m 2 min 0 min 353 W/m 20,9 km/h (4 Bft)
31.01.2015 11:56 4,2 C 2,2 C 89 % 981,6 hPa 0,0 l/m 2 min 0 min 353 W/m 23,0 km/h (4 Bft)
31.01.2015 11:58 4,2 C 2,2 C 88 % 981,6 hPa 0,0 l/m 2 min 0 min 349 W/m 25,1 km/h (4 Bft)
31.01.2015 12:00 4,2 C 2,2 C 88 % 981,5 hPa 0,0 l/m 2 min 0 min 346 W/m 20,9 km/h (4 Bft)
31.01.2015 12:02 4,3 C 2,2 C 88 % 981,6 hPa 0,0 l/m 2 min 0 min 332 W/m 18,8 km/h (3 Bft)
31.01.2015 12:05 4,4 C 2,2 C 87 % 981,6 hPa 0,0 l/m 2 min 0 min 342 W/m 23,0 km/h (4 Bft)
31.01.2015 12:06 4,4 C 2,2 C 87 % 981,6 hPa 0,0 l/m 1 min 0 min 350 W/m 16,7 km/h (3 Bft)
31.01.2015 12:08 4,4 C 2,2 C 87 % 981,6 hPa 0,0 l/m 2 min 0 min 279 W/m 20,9 km/h (4 Bft)
31.01.2015 12:10 4,4 C 2,2 C 86 % 981,6 hPa 0,0 l/m 0 min 0 min 116 W/m 23,0 km/h (4 Bft)
31.01.2015 12:12 4,4 C 2,2 C 86 % 981,6 hPa 0,0 l/m 0 min 0 min 105 W/m 25,1 km/h (4 Bft)
31.01.2015 12:14 4,4 C 2,2 C 85 % 981,6 hPa 0,0 l/m 0 min 0 min 102 W/m 27,2 km/h (4 Bft)
31.01.2015 12:16 4,3 C 2,2 C 85 % 981,6 hPa 0,0 l/m 0 min 0 min 84 W/m 23,0 km/h (4 Bft)
31.01.2015 12:18 4,3 C 1,7 C 85 % 981,5 hPa 0,0 l/m 0 min 0 min 90 W/m 25,1 km/h (4 Bft)
31.01.2015 12:20 4,3 C 2,2 C 85 % 981,6 hPa 0,0 l/m 2 min 0 min 293 W/m 20,9 km/h (4 Bft)
31.01.2015 12:22 4,3 C 2,2 C 85 % 981,6 hPa 0,0 l/m 2 min 0 min 376 W/m 20,9 km/h (4 Bft)
31.01.2015 12:24 4,3 C 2,8 C 85 % 981,6 hPa 0,0 l/m 2 min 0 min 396 W/m 27,2 km/h (4 Bft)
31.01.2015 12:26 4,3 C 2,8 C 85 % 981,5 hPa 0,0 l/m 2 min 0 min 409 W/m 27,2 km/h (4 Bft)
31.01.2015 12:28 4,3 C 2,8 C 85 % 981,6 hPa 0,0 l/m 2 min 0 min 278 W/m 20,9 km/h (4 Bft)
31.01.2015 12:30 4,3 C 2,8 C 85 % 981,6 hPa 0,0 l/m 2 min 0 min 276 W/m 23,0 km/h (4 Bft)
31.01.2015 12:32 4,4 C 2,8 C 84 % 981,6 hPa 0,0 l/m 2 min 0 min 385 W/m 29,3 km/h (5 Bft)
31.01.2015 12:34 4,4 C 2,8 C 84 % 981,5 hPa 0,0 l/m 2 min 0 min 385 W/m 25,1 km/h (4 Bft)
31.01.2015 12:36 4,5 C 2,8 C 84 % 981,5 hPa 0,0 l/m 2 min 0 min 381 W/m 23,0 km/h (4 Bft)
31.01.2015 12:38 4,6 C 2,8 C 84 % 981,5 hPa 0,0 l/m 2 min 0 min 334 W/m 20,9 km/h (4 Bft)
31.01.2015 12:40 4,6 C 2,8 C 84 % 981,5 hPa 0,0 l/m 2 min 0 min 199 W/m 25,1 km/h (4 Bft)
31.01.2015 12:42 4,6 C 3,3 C 84 % 981,6 hPa 0,0 l/m 2 min 0 min 342 W/m 29,3 km/h (5 Bft)
31.01.2015 12:44 4,7 C 3,3 C 83 % 981,6 hPa 0,0 l/m 2 min 0 min 397 W/m 25,1 km/h (4 Bft)
31.01.2015 12:46 4,8 C 3,3 C 84 % 981,5 hPa 0,0 l/m 2 min 0 min 416 W/m 23,0 km/h (4 Bft)
31.01.2015 12:48 4,8 C 3,9 C 83 % 981,6 hPa 0,0 l/m 2 min 0 min 447 W/m 29,3 km/h (5 Bft)
31.01.2015 12:50 4,9 C 3,9 C 83 % 981,5 hPa 0,0 l/m 2 min 0 min 434 W/m 23,0 km/h (4 Bft)
31.01.2015 12:52 5,1 C 3,9 C 83 % 981,6 hPa 0,0 l/m 2 min 0 min 430 W/m 18,8 km/h (3 Bft)
31.01.2015 12:54 5,2 C 3,9 C 83 % 981,6 hPa 0,0 l/m 2 min 0 min 432 W/m 14,6 km/h (3 Bft)
31.01.2015 12:56 5,3 C 4,4 C 83 % 981,5 hPa 0,0 l/m 2 min 0 min 436 W/m 16,7 km/h (3 Bft)
31.01.2015 12:58 5,4 C 4,4 C 82 % 981,5 hPa 0,0 l/m 2 min 0 min 436 W/m 20,9 km/h (4 Bft)
31.01.2015 13:00 5,5 C 3,9 C 82 % 981,5 hPa 0,0 l/m 2 min 0 min 356 W/m 20,9 km/h (4 Bft)
31.01.2015 13:02 5,6 C 3,9 C 81 % 981,5 hPa 0,0 l/m 0 min 0 min 174 W/m 18,8 km/h (3 Bft)
31.01.2015 13:04 5,6 C 3,9 C 81 % 981,6 hPa 0,0 l/m 2 min 0 min 191 W/m 18,8 km/h (3 Bft)
31.01.2015 13:06 5,7 C 3,9 C 81 % 981,5 hPa 0,0 l/m 2 min 0 min 392 W/m 16,7 km/h (3 Bft)
31.01.2015 13:08 5,7 C 3,9 C 80 % 981,6 hPa 0,0 l/m 2 min 0 min 391 W/m 23,0 km/h (4 Bft)
31.01.2015 13:10 5,8 C 3,9 C 79 % 981,5 hPa 0,0 l/m 2 min 0 min 342 W/m 16,7 km/h (3 Bft)
31.01.2015 13:12 5,8 C 3,9 C 79 % 981,5 hPa 0,0 l/m 2 min 0 min 353 W/m 25,1 km/h (4 Bft)
31.01.2015 13:14 5,8 C 3,9 C 78 % 981,5 hPa 0,0 l/m 2 min 0 min 359 W/m 23,0 km/h (4 Bft)
31.01.2015 13:16 5,8 C 3,3 C 78 % 981,6 hPa 0,0 l/m 0 min 0 min 128 W/m 23,0 km/h (4 Bft)
31.01.2015 13:18 5,7 C 3,3 C 78 % 981,6 hPa 0,0 l/m 2 min 0 min 300 W/m 20,9 km/h (4 Bft)
31.01.2015 13:20 5,7 C 3,3 C 77 % 981,6 hPa 0,0 l/m 0 min 0 min 171 W/m 18,8 km/h (3 Bft)
31.01.2015 13:22 5,7 C 3,3 C 77 % 981,6 hPa 0,0 l/m 0 min 0 min 119 W/m 18,8 km/h (3 Bft)
31.01.2015 13:24 5,6 C 3,3 C 77 % 981,7 hPa 0,0 l/m 0 min 0 min 102 W/m 14,6 km/h (3 Bft)
31.01.2015 13:26 5,6 C 3,3 C 77 % 981,7 hPa 0,0 l/m 0 min 0 min 107 W/m 18,8 km/h (3 Bft)
31.01.2015 13:28 5,6 C 3,3 C 77 % 981,7 hPa 0,0 l/m 2 min 0 min 249 W/m 25,1 km/h (4 Bft)
31.01.2015 13:30 5,4 C 3,3 C 77 % 981,7 hPa 0,0 l/m 2 min 0 min 362 W/m 23,0 km/h (4 Bft)
31.01.2015 13:32 5,4 C 3,3 C 76 % 981,7 hPa 0,0 l/m 0 min 0 min 144 W/m 25,1 km/h (4 Bft)
31.01.2015 13:34 5,4 C 2,8 C 76 % 981,7 hPa 0,0 l/m 0 min 0 min 92 W/m 27,2 km/h (4 Bft)
31.01.2015 13:36 5,3 C 2,8 C 76 % 981,7 hPa 0,0 l/m 0 min 0 min 84 W/m 23,0 km/h (4 Bft)
31.01.2015 13:38 5,2 C 2,8 C 76 % 981,6 hPa 0,0 l/m 0 min 0 min 89 W/m 20,9 km/h (4 Bft)
31.01.2015 13:40 5,2 C 2,8 C 77 % 981,7 hPa 0,0 l/m 0 min 0 min 90 W/m 18,8 km/h (3 Bft)
31.01.2015 13:42 5,1 C 2,8 C 77 % 981,7 hPa 0,0 l/m 0 min 0 min 87 W/m 23,0 km/h (4 Bft)
31.01.2015 13:44 5,0 C 2,8 C 77 % 981,7 hPa 0,0 l/m 0 min 0 min 98 W/m 18,8 km/h (3 Bft)
31.01.2015 13:46 4,9 C 2,8 C 78 % 981,7 hPa 0,0 l/m 0 min 0 min 109 W/m 16,7 km/h (3 Bft)
31.01.2015 13:48 4,9 C 2,8 C 78 % 981,8 hPa 0,0 l/m 0 min 0 min 113 W/m 16,7 km/h (3 Bft)
31.01.2015 13:50 4,9 C 2,8 C 78 % 981,7 hPa 0,0 l/m 0 min 0 min 112 W/m 16,7 km/h (3 Bft)
31.01.2015 13:52 4,8 C 2,8 C 79 % 981,7 hPa 0,0 l/m 0 min 0 min 104 W/m 23,0 km/h (4 Bft)
31.01.2015 13:54 4,8 C 2,8 C 79 % 981,8 hPa 0,0 l/m 0 min 0 min 94 W/m 16,7 km/h (3 Bft)
31.01.2015 13:56 4,7 C 2,8 C 79 % 981,8 hPa 0,0 l/m 0 min 0 min 83 W/m 18,8 km/h (3 Bft)
31.01.2015 13:58 4,7 C 2,8 C 79 % 981,7 hPa 0,0 l/m 0 min 0 min 74 W/m 20,9 km/h (4 Bft)
31.01.2015 14:00 4,6 C 2,8 C 79 % 981,8 hPa 0,0 l/m 0 min 0 min 76 W/m 14,6 km/h (3 Bft)
31.01.2015 14:02 4,6 C 2,8 C 79 % 981,8 hPa 0,0 l/m 2 min 0 min 182 W/m 12,6 km/h (3 Bft)
31.01.2015 14:04 4,6 C 2,8 C 80 % 981,7 hPa 0,0 l/m 2 min 0 min 320 W/m 10,5 km/h (2 Bft)
31.01.2015 14:06 4,6 C 3,3 C 80 % 981,7 hPa 0,0 l/m 2 min 0 min 320 W/m 18,8 km/h (3 Bft)
31.01.2015 14:08 4,7 C 3,3 C 80 % 981,7 hPa 0,0 l/m 2 min 0 min 321 W/m 18,8 km/h (3 Bft)
31.01.2015 14:10 4,7 C 3,9 C 80 % 981,7 hPa 0,0 l/m 2 min 0 min 311 W/m 25,1 km/h (4 Bft)
31.01.2015 14:12 4,8 C 3,9 C 80 % 981,7 hPa 0,0 l/m 2 min 0 min 296 W/m 25,1 km/h (4 Bft)
31.01.2015 14:14 4,9 C 3,9 C 80 % 981,7 hPa 0,0 l/m 2 min 0 min 283 W/m 23,0 km/h (4 Bft)
31.01.2015 14:16 4,9 C 3,9 C 80 % 981,7 hPa 0,0 l/m 2 min 0 min 282 W/m 20,9 km/h (4 Bft)
31.01.2015 14:18 5,0 C 3,9 C 80 % 981,7 hPa 0,0 l/m 2 min 0 min 239 W/m 23,0 km/h (4 Bft)
31.01.2015 14:20 5,1 C 3,9 C 80 % 981,7 hPa 0,0 l/m 2 min 0 min 283 W/m 20,9 km/h (4 Bft)
31.01.2015 14:22 5,2 C 3,9 C 79 % 981,8 hPa 0,0 l/m 2 min 0 min 288 W/m 18,8 km/h (3 Bft)
31.01.2015 14:24 5,2 C 3,9 C 79 % 981,8 hPa 0,0 l/m 2 min 0 min 279 W/m 14,6 km/h (3 Bft)
31.01.2015 14:26 5,3 C 3,9 C 79 % 981,8 hPa 0,0 l/m 2 min 0 min 275 W/m 20,9 km/h (4 Bft)
31.01.2015 14:28 5,3 C 3,9 C 79 % 981,8 hPa 0,0 l/m 2 min 0 min 271 W/m 16,7 km/h (3 Bft)
31.01.2015 14:30 5,4 C 3,9 C 79 % 981,8 hPa 0,0 l/m 2 min 0 min 261 W/m 14,6 km/h (3 Bft)
31.01.2015 14:32 5,4 C 3,9 C 78 % 981,8 hPa 0,0 l/m 2 min 0 min 179 W/m 14,6 km/h (3 Bft)
31.01.2015 14:34 5,4 C 3,9 C 78 % 981,8 hPa 0,0 l/m 0 min 0 min 112 W/m 16,7 km/h (3 Bft)
31.01.2015 14:36 5,4 C 3,9 C 78 % 981,8 hPa 0,0 l/m 0 min 0 min 117 W/m 14,6 km/h (3 Bft)
31.01.2015 14:38 5,4 C 3,9 C 78 % 981,8 hPa 0,0 l/m 0 min 0 min 114 W/m 10,5 km/h (2 Bft)
31.01.2015 14:40 5,4 C 3,9 C 77 % 981,8 hPa 0,0 l/m 0 min 0 min 134 W/m 14,6 km/h (3 Bft)
31.01.2015 14:42 5,4 C 3,9 C 78 % 981,9 hPa 0,0 l/m 2 min 0 min 156 W/m 14,6 km/h (3 Bft)
31.01.2015 14:44 5,4 C 4,4 C 78 % 981,9 hPa 0,0 l/m 2 min 0 min 187 W/m 27,2 km/h (4 Bft)
31.01.2015 14:46 5,4 C 4,4 C 78 % 981,9 hPa 0,0 l/m 2 min 0 min 237 W/m 20,9 km/h (4 Bft)
31.01.2015 14:48 5,4 C 4,4 C 78 % 982,0 hPa 0,0 l/m 2 min 0 min 340 W/m 25,1 km/h (4 Bft)
31.01.2015 14:50 5,4 C 5,0 C 78 % 981,9 hPa 0,0 l/m 2 min 0 min 338 W/m 20,9 km/h (4 Bft)
31.01.2015 14:52 5,5 C 5,0 C 77 % 981,9 hPa 0,0 l/m 2 min 0 min 346 W/m 23,0 km/h (4 Bft)
31.01.2015 14:54 5,5 C 4,4 C 76 % 981,9 hPa 0,0 l/m 2 min 0 min 286 W/m 27,2 km/h (4 Bft)
31.01.2015 14:56 5,6 C 5,0 C 76 % 981,9 hPa 0,0 l/m 2 min 0 min 193 W/m 16,7 km/h (3 Bft)
31.01.2015 14:58 5,6 C 4,4 C 76 % 982,0 hPa 0,0 l/m 2 min 0 min 192 W/m 20,9 km/h (4 Bft)
31.01.2015 15:00 5,6 C 5,0 C 76 % 982,0 hPa 0,0 l/m 2 min 0 min 321 W/m 23,0 km/h (4 Bft)
31.01.2015 15:02 5,6 C 5,0 C 76 % 982,0 hPa 0,0 l/m 2 min 0 min 331 W/m 27,2 km/h (4 Bft)
31.01.2015 15:04 5,6 C 4,4 C 76 % 982,0 hPa 0,0 l/m 2 min 0 min 272 W/m 23,0 km/h (4 Bft)
31.01.2015 15:06 5,7 C 4,4 C 76 % 982,1 hPa 0,0 l/m 2 min 0 min 249 W/m 27,2 km/h (4 Bft)
31.01.2015 15:08 5,7 C 4,4 C 75 % 982,1 hPa 0,0 l/m 2 min 0 min 241 W/m 29,3 km/h (5 Bft)
31.01.2015 15:10 5,6 C 3,9 C 75 % 982,1 hPa 0,0 l/m 2 min 0 min 129 W/m 29,3 km/h (5 Bft)
31.01.2015 15:12 5,6 C 3,9 C 75 % 982,2 hPa 0,0 l/m 0 min 0 min 88 W/m 20,9 km/h (4 Bft)
31.01.2015 15:14 5,5 C 3,3 C 75 % 982,2 hPa 0,0 l/m 0 min 0 min 80 W/m 23,0 km/h (4 Bft)
31.01.2015 15:16 5,4 C 3,3 C 75 % 982,2 hPa 0,0 l/m 0 min 0 min 81 W/m 20,9 km/h (4 Bft)
31.01.2015 15:18 5,4 C 3,3 C 75 % 982,2 hPa 0,0 l/m 2 min 0 min 201 W/m 23,0 km/h (4 Bft)
31.01.2015 15:20 5,4 C 3,9 C 76 % 982,2 hPa 0,0 l/m 2 min 0 min 227 W/m 16,7 km/h (3 Bft)
31.01.2015 15:22 5,4 C 3,9 C 76 % 982,2 hPa 0,0 l/m 2 min 0 min 236 W/m 20,9 km/h (4 Bft)
31.01.2015 15:24 5,4 C 3,9 C 76 % 982,3 hPa 0,0 l/m 2 min 0 min 234 W/m 23,0 km/h (4 Bft)
31.01.2015 15:26 5,4 C 4,4 C 76 % 982,2 hPa 0,0 l/m 2 min 0 min 222 W/m 18,8 km/h (3 Bft)
31.01.2015 15:28 5,4 C 4,4 C 76 % 982,2 hPa 0,0 l/m 2 min 0 min 208 W/m 20,9 km/h (4 Bft)
31.01.2015 15:30 5,4 C 4,4 C 76 % 982,2 hPa 0,0 l/m 2 min 0 min 202 W/m 16,7 km/h (3 Bft)
31.01.2015 15:32 5,4 C 4,4 C 76 % 982,2 hPa 0,0 l/m 2 min 0 min 187 W/m 20,9 km/h (4 Bft)
31.01.2015 15:34 5,4 C 3,9 C 76 % 982,3 hPa 0,0 l/m 2 min 0 min 125 W/m 20,9 km/h (4 Bft)
31.01.2015 15:36 5,4 C 3,9 C 76 % 982,4 hPa 0,0 l/m 2 min 0 min 121 W/m 23,0 km/h (4 Bft)
31.01.2015 15:38 5,4 C 3,9 C 76 % 982,4 hPa 0,0 l/m 2 min 0 min 126 W/m 25,1 km/h (4 Bft)
31.01.2015 15:40 5,3 C 3,9 C 76 % 982,4 hPa 0,0 l/m 2 min 0 min 168 W/m 23,0 km/h (4 Bft)
31.01.2015 15:42 5,3 C 3,9 C 77 % 982,4 hPa 0,0 l/m 2 min 0 min 175 W/m 18,8 km/h (3 Bft)
31.01.2015 15:44 5,2 C 3,9 C 77 % 982,4 hPa 0,0 l/m 2 min 0 min 158 W/m 16,7 km/h (3 Bft)
31.01.2015 15:46 5,2 C 3,9 C 77 % 982,5 hPa 0,0 l/m 2 min 0 min 131 W/m 27,2 km/h (4 Bft)
31.01.2015 15:48 5,2 C 3,3 C 77 % 982,5 hPa 0,0 l/m 2 min 0 min 115 W/m 20,9 km/h (4 Bft)
31.01.2015 15:50 5,1 C 3,3 C 77 % 982,5 hPa 0,0 l/m 2 min 0 min 105 W/m 20,9 km/h (4 Bft)
31.01.2015 15:52 5,1 C 3,3 C 77 % 982,4 hPa 0,0 l/m 2 min 0 min 108 W/m 25,1 km/h (4 Bft)
31.01.2015 15:54 5,0 C 3,3 C 77 % 982,4 hPa 0,0 l/m 2 min 0 min 117 W/m 20,9 km/h (4 Bft)
31.01.2015 15:56 4,9 C 3,3 C 78 % 982,4 hPa 0,0 l/m 2 min 0 min 143 W/m 20,9 km/h (4 Bft)
31.01.2015 15:58 4,9 C 3,3 C 78 % 982,5 hPa 0,0 l/m 2 min 0 min 152 W/m 18,8 km/h (3 Bft)
31.01.2015 16:00 4,9 C 3,3 C 78 % 982,4 hPa 0,0 l/m 2 min 0 min 130 W/m 20,9 km/h (4 Bft)
31.01.2015 16:02 4,8 C 3,3 C 78 % 982,5 hPa 0,0 l/m 2 min 0 min 98 W/m 27,2 km/h (4 Bft)
31.01.2015 16:04 4,8 C 3,3 C 78 % 982,5 hPa 0,0 l/m 2 min 0 min 94 W/m 23,0 km/h (4 Bft)
31.01.2015 16:06 4,7 C 2,8 C 78 % 982,4 hPa 0,0 l/m 2 min 0 min 78 W/m 16,7 km/h (3 Bft)
31.01.2015 16:08 4,7 C 2,8 C 79 % 982,5 hPa 0,0 l/m 0 min 0 min 67 W/m 16,7 km/h (3 Bft)
31.01.2015 16:10 4,6 C 2,8 C 79 % 982,5 hPa 0,0 l/m 0 min 0 min 68 W/m 20,9 km/h (4 Bft)
31.01.2015 16:12 4,5 C 2,8 C 79 % 982,5 hPa 0,0 l/m 0 min 0 min 69 W/m 18,8 km/h (3 Bft)
31.01.2015 16:14 4,4 C 2,2 C 79 % 982,6 hPa 0,0 l/m 0 min 0 min 64 W/m 20,9 km/h (4 Bft)
31.01.2015 16:16 4,3 C 2,2 C 79 % 982,6 hPa 0,0 l/m 0 min 0 min 63 W/m 23,0 km/h (4 Bft)
31.01.2015 16:18 4,3 C 2,2 C 79 % 982,6 hPa 0,0 l/m 0 min 0 min 59 W/m 18,8 km/h (3 Bft)
31.01.2015 16:20 4,2 C 2,2 C 79 % 982,7 hPa 0,0 l/m 0 min 0 min 55 W/m 27,2 km/h (4 Bft)
31.01.2015 16:22 4,2 C 2,2 C 79 % 982,7 hPa 0,0 l/m 0 min 0 min 51 W/m 25,1 km/h (4 Bft)
31.01.2015 16:24 4,1 C 2,2 C 80 % 982,7 hPa 0,0 l/m 0 min 0 min 46 W/m 23,0 km/h (4 Bft)
31.01.2015 16:26 3,9 C 2,2 C 80 % 982,7 hPa 0,0 l/m 0 min 0 min 45 W/m 25,1 km/h (4 Bft)
31.01.2015 16:28 3,9 C 2,2 C 80 % 982,7 hPa 0,0 l/m 0 min 0 min 42 W/m 20,9 km/h (4 Bft)
31.01.2015 16:30 3,9 C 2,2 C 80 % 982,8 hPa 0,0 l/m 0 min 0 min 40 W/m 25,1 km/h (4 Bft)
31.01.2015 16:32 3,8 C 2,2 C 80 % 982,8 hPa 0,0 l/m 0 min 0 min 40 W/m 16,7 km/h (3 Bft)
31.01.2015 16:34 3,8 C 1,7 C 81 % 982,8 hPa 0,0 l/m 0 min 0 min 38 W/m 20,9 km/h (4 Bft)
31.01.2015 16:36 3,7 C 1,7 C 81 % 982,9 hPa 0,0 l/m 0 min 0 min 35 W/m 23,0 km/h (4 Bft)
31.01.2015 16:38 3,7 C 1,7 C 81 % 982,9 hPa 0,0 l/m 0 min 0 min 33 W/m 20,9 km/h (4 Bft)
31.01.2015 16:40 3,6 C 1,7 C 81 % 982,9 hPa 0,0 l/m 0 min 0 min 31 W/m 20,9 km/h (4 Bft)
31.01.2015 16:42 3,6 C 1,7 C 81 % 983,0 hPa 0,0 l/m 0 min 0 min 30 W/m 10,5 km/h (2 Bft)
31.01.2015 16:44 3,5 C 1,7 C 82 % 983,0 hPa 0,0 l/m 0 min 0 min 28 W/m 18,8 km/h (3 Bft)
31.01.2015 16:46 3,5 C 1,7 C 82 % 983,1 hPa 0,0 l/m 0 min 0 min 27 W/m 23,0 km/h (4 Bft)
31.01.2015 16:48 3,4 C 1,7 C 82 % 983,0 hPa 0,0 l/m 0 min 0 min 26 W/m 27,2 km/h (4 Bft)
31.01.2015 16:50 3,4 C 1,7 C 82 % 983,1 hPa 0,0 l/m 0 min 0 min 25 W/m 25,1 km/h (4 Bft)
31.01.2015 16:52 3,3 C 1,7 C 82 % 983,1 hPa 0,0 l/m 0 min 0 min 23 W/m 20,9 km/h (4 Bft)
31.01.2015 16:54 3,3 C 1,1 C 82 % 983,1 hPa 0,0 l/m 0 min 0 min 22 W/m 16,7 km/h (3 Bft)
31.01.2015 16:56 3,2 C 1,1 C 82 % 983,2 hPa 0,0 l/m 0 min 0 min 21 W/m 18,8 km/h (3 Bft)
31.01.2015 16:58 3,2 C 1,1 C 82 % 983,2 hPa 0,0 l/m 0 min 0 min 19 W/m 16,7 km/h (3 Bft)
31.01.2015 17:00 3,1 C 1,1 C 82 % 983,1 hPa 0,0 l/m 0 min 0 min 18 W/m 16,7 km/h (3 Bft)
31.01.2015 17:02 3,1 C 1,1 C 82 % 983,1 hPa 0,0 l/m 0 min 0 min 16 W/m 18,8 km/h (3 Bft)
31.01.2015 17:04 3,0 C 1,1 C 82 % 983,2 hPa 0,0 l/m 2 min 0 min 16 W/m 18,8 km/h (3 Bft)
31.01.2015 17:06 2,9 C 1,1 C 83 % 983,2 hPa 0,0 l/m 2 min 0 min 14 W/m 16,7 km/h (3 Bft)
31.01.2015 17:08 2,9 C 1,1 C 83 % 983,2 hPa 0,0 l/m 2 min 0 min 12 W/m 16,7 km/h (3 Bft)
31.01.2015 17:10 2,9 C 1,1 C 83 % 983,2 hPa 0,0 l/m 0 min 0 min 12 W/m 12,6 km/h (3 Bft)
31.01.2015 17:12 2,8 C 1,1 C 83 % 983,2 hPa 0,0 l/m 0 min 0 min 11 W/m 10,5 km/h (2 Bft)
31.01.2015 17:14 2,8 C 1,1 C 83 % 983,3 hPa 0,0 l/m 0 min 0 min 10 W/m 12,6 km/h (3 Bft)
31.01.2015 17:16 2,8 C 0,6 C 83 % 983,3 hPa 0,0 l/m 0 min 0 min 9 W/m 12,6 km/h (3 Bft)
31.01.2015 17:18 2,7 C 0,6 C 83 % 983,4 hPa 0,0 l/m 0 min 0 min 8 W/m 8,4 km/h (2 Bft)
31.01.2015 17:20 2,7 C 0,6 C 83 % 983,3 hPa 0,0 l/m 0 min 0 min 7 W/m 10,5 km/h (2 Bft)
31.01.2015 17:22 2,7 C 0,6 C 83 % 983,4 hPa 0,0 l/m 0 min 0 min 7 W/m 10,5 km/h (2 Bft)
31.01.2015 17:24 2,6 C 0,6 C 84 % 983,4 hPa 0,0 l/m 0 min 0 min 5 W/m 10,5 km/h (2 Bft)
31.01.2015 17:26 2,6 C 0,6 C 83 % 983,4 hPa 0,0 l/m 0 min 0 min 5 W/m 12,6 km/h (3 Bft)
31.01.2015 17:28 2,6 C 0,6 C 83 % 983,4 hPa 0,0 l/m 0 min 0 min 5 W/m 6,3 km/h (2 Bft)
31.01.2015 17:30 2,6 C 0,6 C 84 % 983,4 hPa 0,0 l/m 0 min 0 min 2 W/m 8,4 km/h (2 Bft)
31.01.2015 17:32 2,5 C 0,0 C 84 % 983,4 hPa 0,0 l/m 0 min 0 min 0 W/m 8,4 km/h (2 Bft)
31.01.2015 17:34 2,4 C 0,0 C 84 % 983,4 hPa 0,0 l/m 0 min 0 min 0 W/m 8,4 km/h (2 Bft)
31.01.2015 17:36 2,4 C 0,0 C 84 % 983,5 hPa 0,0 l/m 0 min 0 min 0 W/m 8,4 km/h (2 Bft)
31.01.2015 17:38 2,4 C 0,0 C 84 % 983,5 hPa 0,0 l/m 0 min 0 min 0 W/m 8,4 km/h (2 Bft)
31.01.2015 17:40 2,3 C 0,0 C 84 % 983,5 hPa 0,0 l/m 0 min 0 min 0 W/m 8,4 km/h (2 Bft)
31.01.2015 17:42 2,3 C 0,0 C 84 % 983,6 hPa 0,0 l/m 0 min 0 min 0 W/m 8,4 km/h (2 Bft)
31.01.2015 17:44 2,3 C 0,0 C 84 % 983,6 hPa 0,0 l/m 0 min 0 min 0 W/m 10,5 km/h (2 Bft)
31.01.2015 17:46 2,2 C 0,0 C 84 % 983,6 hPa 0,0 l/m 0 min 0 min 0 W/m 10,5 km/h (2 Bft)
31.01.2015 17:48 2,2 C 0,0 C 84 % 983,5 hPa 0,0 l/m 0 min 0 min 0 W/m 6,3 km/h (2 Bft)
31.01.2015 17:50 2,2 C 0,0 C 84 % 983,6 hPa 0,0 l/m 0 min 0 min 0 W/m 4,2 km/h (1 Bft)
31.01.2015 17:52 2,1 C 0,0 C 84 % 983,5 hPa 0,0 l/m 0 min 0 min 0 W/m 10,5 km/h (2 Bft)
31.01.2015 17:54 2,1 C 0,0 C 84 % 983,6 hPa 0,0 l/m 0 min 0 min 0 W/m 8,4 km/h (2 Bft)
31.01.2015 17:56 2,1 C 0,0 C 84 % 983,6 hPa 0,0 l/m 0 min 0 min 0 W/m 6,3 km/h (2 Bft)
31.01.2015 17:58 2,0 C -0,6 C 84 % 983,6 hPa 0,0 l/m 0 min 0 min 0 W/m 8,4 km/h (2 Bft)
31.01.2015 18:00 2,0 C -0,6 C 85 % 983,7 hPa 0,0 l/m 0 min 0 min 0 W/m 8,4 km/h (2 Bft)
31.01.2015 18:03 1,9 C 0,0 C 85 % 983,7 hPa 0,0 l/m 0 min 0 min 0 W/m 10,5 km/h (2 Bft)
31.01.2015 18:06 1,9 C 0,0 C 85 % 983,7 hPa 0,0 l/m 0 min 0 min 0 W/m 10,5 km/h (2 Bft)
31.01.2015 18:08 1,8 C -0,6 C 85 % 983,7 hPa 0,0 l/m 0 min 0 min 0 W/m 4,2 km/h (1 Bft)
31.01.2015 18:10 1,8 C -0,6 C 85 % 983,7 hPa 0,0 l/m 0 min 0 min 0 W/m 4,2 km/h (1 Bft)
31.01.2015 18:12 1,8 C -0,6 C 85 % 983,7 hPa 0,0 l/m 0 min 0 min 0 W/m 6,3 km/h (2 Bft)
31.01.2015 18:14 1,8 C -0,6 C 85 % 983,7 hPa 0,0 l/m 0 min 0 min 0 W/m 4,2 km/h (1 Bft)
31.01.2015 18:16 1,8 C -1,1 C 85 % 983,7 hPa 0,0 l/m 0 min 0 min 0 W/m 6,3 km/h (2 Bft)
31.01.2015 18:18 1,7 C -1,1 C 85 % 983,7 hPa 0,0 l/m 0 min 0 min 0 W/m 6,3 km/h (2 Bft)
31.01.2015 18:20 1,7 C -1,1 C 85 % 983,7 hPa 0,0 l/m 0 min 0 min 0 W/m 4,2 km/h (1 Bft)
31.01.2015 18:22 1,7 C -1,1 C 85 % 983,7 hPa 0,0 l/m 0 min 0 min 0 W/m 6,3 km/h (2 Bft)
31.01.2015 18:24 1,7 C -1,1 C 86 % 983,8 hPa 0,0 l/m 0 min 0 min 0 W/m 6,3 km/h (2 Bft)
31.01.2015 18:26 1,6 C -1,1 C 85 % 983,7 hPa 0,0 l/m 0 min 0 min 0 W/m 4,2 km/h (1 Bft)
31.01.2015 18:28 1,6 C -1,7 C 85 % 983,7 hPa 0,0 l/m 0 min 0 min 0 W/m 4,2 km/h (1 Bft)
31.01.2015 18:30 1,6 C -1,7 C 85 % 983,7 hPa 0,0 l/m 0 min 0 min 0 W/m 4,2 km/h (1 Bft)
31.01.2015 18:32 1,5 C -1,7 C 85 % 983,8 hPa 0,0 l/m 0 min 0 min 0 W/m 4,2 km/h (1 Bft)
31.01.2015 18:34 1,4 C -1,7 C 85 % 983,8 hPa 0,0 l/m 0 min 0 min 0 W/m 2,1 km/h (1 Bft)
31.01.2015 18:36 1,4 C -1,7 C 85 % 983,9 hPa 0,0 l/m 0 min 0 min 0 W/m 4,2 km/h (1 Bft)
31.01.2015 18:38 1,4 C -1,7 C 85 % 983,9 hPa 0,0 l/m 0 min 0 min 0 W/m 4,2 km/h (1 Bft)
31.01.2015 18:40 1,3 C -1,7 C 86 % 983,9 hPa 0,0 l/m 0 min 0 min 0 W/m 4,2 km/h (1 Bft)
31.01.2015 18:42 1,3 C -1,7 C 86 % 983,9 hPa 0,0 l/m 0 min 0 min 0 W/m 4,2 km/h (1 Bft)
31.01.2015 18:44 1,3 C -1,7 C 86 % 984,0 hPa 0,0 l/m 0 min 0 min 0 W/m 4,2 km/h (1 Bft)
31.01.2015 18:46 1,2 C -2,2 C 86 % 984,0 hPa 0,0 l/m 0 min 0 min 0 W/m 4,2 km/h (1 Bft)
31.01.2015 18:48 1,2 C -2,2 C 85 % 984,0 hPa 0,0 l/m 0 min 0 min 0 W/m 2,1 km/h (1 Bft)
31.01.2015 18:50 1,2 C -2,2 C 85 % 984,0 hPa 0,0 l/m 0 min 0 min 0 W/m 2,1 km/h (1 Bft)
31.01.2015 18:52 1,1 C -2,2 C 85 % 984,0 hPa 0,0 l/m 0 min 0 min 0 W/m 4,2 km/h (1 Bft)
31.01.2015 18:54 1,1 C -2,2 C 86 % 984,1 hPa 0,0 l/m 0 min 0 min 0 W/m 2,1 km/h (1 Bft)
31.01.2015 18:56 1,0 C -2,2 C 86 % 984,2 hPa 0,0 l/m 0 min 0 min 0 W/m 2,1 km/h (1 Bft)
31.01.2015 18:58 0,9 C -2,2 C 86 % 984,2 hPa 0,0 l/m 0 min 0 min 0 W/m 2,1 km/h (1 Bft)
31.01.2015 19:00 0,9 C -2,2 C 86 % 984,2 hPa 0,0 l/m 0 min 0 min 0 W/m 4,2 km/h (1 Bft)
31.01.2015 19:02 0,8 C -2,2 C 85 % 984,3 hPa 0,0 l/m 0 min 0 min 0 W/m 4,2 km/h (1 Bft)
31.01.2015 19:04 0,8 C -2,2 C 85 % 984,3 hPa 0,0 l/m 0 min 0 min 0 W/m 4,2 km/h (1 Bft)
31.01.2015 19:06 0,8 C -2,2 C 86 % 984,3 hPa 0,0 l/m 0 min 0 min 0 W/m 4,2 km/h (1 Bft)
31.01.2015 19:08 0,7 C -2,2 C 86 % 984,3 hPa 0,0 l/m 0 min 0 min 0 W/m 4,2 km/h (1 Bft)
31.01.2015 19:10 0,7 C -2,2 C 86 % 984,3 hPa 0,0 l/m 0 min 0 min 0 W/m 6,3 km/h (2 Bft)
31.01.2015 19:12 0,7 C -2,2 C 86 % 984,3 hPa 0,0 l/m 0 min 0 min 0 W/m 6,3 km/h (2 Bft)
31.01.2015 19:14 0,6 C -2,2 C 86 % 984,3 hPa 0,0 l/m 0 min 0 min 0 W/m 6,3 km/h (2 Bft)
31.01.2015 19:16 0,5 C -2,2 C 86 % 984,4 hPa 0,0 l/m 0 min 0 min 0 W/m 6,3 km/h (2 Bft)
31.01.2015 19:18 0,5 C -2,2 C 86 % 984,3 hPa 0,0 l/m 0 min 0 min 0 W/m 6,3 km/h (2 Bft)
31.01.2015 19:20 0,5 C -2,2 C 86 % 984,4 hPa 0,0 l/m 0 min 0 min 0 W/m 6,3 km/h (2 Bft)
31.01.2015 19:22 0,5 C -2,2 C 86 % 984,5 hPa 0,0 l/m 0 min 0 min 0 W/m 6,3 km/h (2 Bft)
31.01.2015 19:24 0,5 C -2,2 C 87 % 984,5 hPa 0,0 l/m 0 min 0 min 0 W/m 8,4 km/h (2 Bft)
31.01.2015 19:26 0,4 C -2,2 C 87 % 984,5 hPa 0,0 l/m 0 min 0 min 0 W/m 8,4 km/h (2 Bft)
31.01.2015 19:28 0,4 C -2,2 C 87 % 984,5 hPa 0,0 l/m 0 min 0 min 0 W/m 6,3 km/h (2 Bft)
31.01.2015 19:30 0,4 C -2,2 C 87 % 984,5 hPa 0,0 l/m 0 min 0 min 0 W/m 8,4 km/h (2 Bft)
31.01.2015 19:32 0,4 C -2,2 C 87 % 984,6 hPa 0,0 l/m 0 min 0 min 0 W/m 8,4 km/h (2 Bft)
31.01.2015 19:34 0,3 C -2,2 C 87 % 984,6 hPa 0,0 l/m 0 min 0 min 0 W/m 6,3 km/h (2 Bft)
31.01.2015 19:36 0,3 C -2,2 C 87 % 984,7 hPa 0,0 l/m 0 min 0 min 0 W/m 8,4 km/h (2 Bft)
31.01.2015 19:38 0,3 C -2,2 C 88 % 984,7 hPa 0,0 l/m 0 min 0 min 0 W/m 8,4 km/h (2 Bft)
31.01.2015 19:40 0,3 C -2,2 C 88 % 984,7 hPa 0,0 l/m 0 min 0 min 0 W/m 6,3 km/h (2 Bft)
31.01.2015 19:42 0,3 C -1,7 C 88 % 984,8 hPa 0,0 l/m 0 min 0 min 0 W/m 8,4 km/h (2 Bft)
31.01.2015 19:44 0,2 C -1,7 C 88 % 984,8 hPa 0,0 l/m 0 min 0 min 0 W/m 6,3 km/h (2 Bft)
31.01.2015 19:46 0,2 C -1,7 C 88 % 984,8 hPa 0,0 l/m 0 min 0 min 0 W/m 6,3 km/h (2 Bft)
31.01.2015 19:48 0,2 C -2,2 C 88 % 984,8 hPa 0,0 l/m 0 min 0 min 0 W/m 6,3 km/h (2 Bft)
31.01.2015 19:50 0,2 C -2,2 C 89 % 984,8 hPa 0,0 l/m 0 min 0 min 0 W/m 4,2 km/h (1 Bft)
31.01.2015 19:52 0,2 C -2,2 C 89 % 984,8 hPa 0,0 l/m 0 min 0 min 0 W/m 6,3 km/h (2 Bft)
31.01.2015 19:54 0,2 C -2,2 C 89 % 984,8 hPa 0,0 l/m 0 min 0 min 0 W/m 4,2 km/h (1 Bft)
31.01.2015 19:56 0,2 C -2,2 C 89 % 984,8 hPa 0,0 l/m 0 min 0 min 0 W/m 6,3 km/h (2 Bft)
31.01.2015 19:58 0,2 C -2,2 C 89 % 984,9 hPa 0,0 l/m 0 min 0 min 0 W/m 4,2 km/h (1 Bft)
31.01.2015 20:00 0,2 C -2,2 C 89 % 984,8 hPa 0,0 l/m 0 min 0 min 0 W/m 6,3 km/h (2 Bft)
31.01.2015 20:02 0,2 C -2,2 C 89 % 984,9 hPa 0,0 l/m 0 min 0 min 0 W/m 4,2 km/h (1 Bft)
31.01.2015 20:04 0,2 C -2,2 C 89 % 984,8 hPa 0,0 l/m 0 min 0 min 0 W/m 4,2 km/h (1 Bft)
31.01.2015 20:06 0,1 C -2,2 C 89 % 984,9 hPa 0,0 l/m 0 min 0 min 0 W/m 4,2 km/h (1 Bft)
31.01.2015 20:08 0,1 C -2,2 C 89 % 984,9 hPa 0,0 l/m 0 min 0 min 0 W/m 6,3 km/h (2 Bft)
31.01.2015 20:10 0,1 C -2,2 C 89 % 984,9 hPa 0,0 l/m 0 min 0 min 0 W/m 4,2 km/h (1 Bft)
31.01.2015 20:12 0,1 C -2,2 C 89 % 984,9 hPa 0,0 l/m 0 min 0 min 0 W/m 6,3 km/h (2 Bft)
31.01.2015 20:14 0,1 C -2,8 C 90 % 984,9 hPa 0,0 l/m 0 min 0 min 0 W/m 6,3 km/h (2 Bft)
31.01.2015 20:16 0,1 C -2,2 C 90 % 984,9 hPa 0,0 l/m 0 min 0 min 0 W/m 6,3 km/h (2 Bft)
31.01.2015 20:18 0,0 C -2,2 C 90 % 984,9 hPa 0,0 l/m 0 min 0 min 0 W/m 6,3 km/h (2 Bft)
31.01.2015 20:20 0,0 C -2,8 C 90 % 984,9 hPa 0,0 l/m 0 min 0 min 0 W/m 6,3 km/h (2 Bft)
31.01.2015 20:22 -0,1 C -2,8 C 90 % 984,9 hPa 0,0 l/m 0 min 0 min 0 W/m 6,3 km/h (2 Bft)
31.01.2015 20:24 -0,1 C -2,2 C 90 % 984,9 hPa 0,0 l/m 0 min 0 min 0 W/m 6,3 km/h (2 Bft)
31.01.2015 20:26 -0,1 C -2,2 C 90 % 984,9 hPa 0,0 l/m 0 min 0 min 0 W/m 6,3 km/h (2 Bft)
31.01.2015 20:28 -0,1 C -2,2 C 90 % 985,0 hPa 0,0 l/m 0 min 0 min 0 W/m 4,2 km/h (1 Bft)
31.01.2015 20:30 -0,1 C -2,2 C 90 % 985,0 hPa 0,0 l/m 0 min 0 min 0 W/m 6,3 km/h (2 Bft)
31.01.2015 20:32 -0,1 C -2,2 C 90 % 985,0 hPa 0,0 l/m 0 min 0 min 0 W/m 4,2 km/h (1 Bft)
31.01.2015 20:34 -0,1 C -2,2 C 90 % 985,0 hPa 0,0 l/m 0 min 0 min 0 W/m 6,3 km/h (2 Bft)
31.01.2015 20:36 -0,1 C -2,2 C 90 % 985,1 hPa 0,0 l/m 0 min 0 min 0 W/m 6,3 km/h (2 Bft)
31.01.2015 20:38 -0,2 C -2,2 C 90 % 985,1 hPa 0,0 l/m 0 min 0 min 0 W/m 4,2 km/h (1 Bft)
31.01.2015 20:40 -0,2 C -2,2 C 90 % 985,2 hPa 0,0 l/m 0 min 0 min 0 W/m 4,2 km/h (1 Bft)
31.01.2015 20:42 -0,2 C -2,2 C 90 % 985,2 hPa 0,0 l/m 0 min 0 min 0 W/m 4,2 km/h (1 Bft)
31.01.2015 20:44 -0,2 C -2,2 C 90 % 985,2 hPa 0,0 l/m 0 min 0 min 0 W/m 4,2 km/h (1 Bft)
31.01.2015 20:46 -0,2 C -2,2 C 90 % 985,2 hPa 0,0 l/m 0 min 0 min 0 W/m 4,2 km/h (1 Bft)
31.01.2015 20:48 -0,2 C -2,2 C 90 % 985,2 hPa 0,0 l/m 0 min 0 min 0 W/m 6,3 km/h (2 Bft)
31.01.2015 20:50 -0,2 C -2,2 C 90 % 985,2 hPa 0,0 l/m 0 min 0 min 0 W/m 4,2 km/h (1 Bft)
31.01.2015 20:52 -0,2 C -2,2 C 91 % 985,2 hPa 0,0 l/m 0 min 0 min 0 W/m 2,1 km/h (1 Bft)
31.01.2015 20:54 -0,2 C -2,2 C 91 % 985,3 hPa 0,0 l/m 0 min 0 min 0 W/m 4,2 km/h (1 Bft)
31.01.2015 20:56 -0,3 C -2,2 C 91 % 985,3 hPa 0,0 l/m 0 min 0 min 0 W/m 2,1 km/h (1 Bft)
31.01.2015 20:58 -0,3 C -2,2 C 91 % 985,3 hPa 0,0 l/m 0 min 0 min 0 W/m 4,2 km/h (1 Bft)
31.01.2015 21:00 -0,3 C -2,2 C 91 % 985,3 hPa 0,0 l/m 0 min 0 min 0 W/m 4,2 km/h (1 Bft)
31.01.2015 21:02 -0,3 C -2,8 C 91 % 985,4 hPa 0,0 l/m 0 min 0 min 0 W/m 4,2 km/h (1 Bft)
31.01.2015 21:04 -0,3 C -2,2 C 91 % 985,3 hPa 0,0 l/m 0 min 0 min 0 W/m 4,2 km/h (1 Bft)
31.01.2015 21:06 -0,3 C -2,2 C 91 % 985,3 hPa 0,0 l/m 0 min 0 min 0 W/m 4,2 km/h (1 Bft)
31.01.2015 21:08 -0,3 C -2,2 C 91 % 985,4 hPa 0,0 l/m 0 min 0 min 0 W/m 4,2 km/h (1 Bft)
31.01.2015 21:10 -0,3 C -2,2 C 91 % 985,4 hPa 0,0 l/m 0 min 0 min 0 W/m 6,3 km/h (2 Bft)
31.01.2015 21:12 -0,3 C -2,2 C 91 % 985,4 hPa 0,0 l/m 0 min 0 min 0 W/m 4,2 km/h (1 Bft)
31.01.2015 21:14 -0,4 C -2,2 C 91 % 985,5 hPa 0,0 l/m 0 min 0 min 0 W/m 6,3 km/h (2 Bft)
31.01.2015 21:16 -0,4 C -2,2 C 91 % 985,5 hPa 0,0 l/m 0 min 0 min 0 W/m 6,3 km/h (2 Bft)
31.01.2015 21:18 -0,4 C -2,2 C 91 % 985,4 hPa 0,0 l/m 0 min 0 min 0 W/m 8,4 km/h (2 Bft)
31.01.2015 21:20 -0,4 C -1,7 C 91 % 985,4 hPa 0,0 l/m 0 min 0 min 0 W/m 8,4 km/h (2 Bft)
31.01.2015 21:22 -0,4 C -1,7 C 91 % 985,5 hPa 0,0 l/m 0 min 0 min 0 W/m 8,4 km/h (2 Bft)
31.01.2015 21:24 -0,4 C -1,7 C 91 % 985,4 hPa 0,0 l/m 0 min 0 min 0 W/m 8,4 km/h (2 Bft)
31.01.2015 21:26 -0,4 C -1,7 C 91 % 985,4 hPa 0,0 l/m 0 min 0 min 0 W/m 6,3 km/h (2 Bft)
31.01.2015 21:28 -0,4 C -1,7 C 91 % 985,3 hPa 0,0 l/m 0 min 0 min 0 W/m 6,3 km/h (2 Bft)
31.01.2015 21:30 -0,4 C -1,7 C 91 % 985,3 hPa 0,0 l/m 0 min 0 min 0 W/m 4,2 km/h (1 Bft)
31.01.2015 21:32 -0,4 C -1,7 C 92 % 985,3 hPa 0,0 l/m 0 min 0 min 0 W/m 8,4 km/h (2 Bft)
31.01.2015 21:34 -0,4 C -1,7 C 92 % 985,3 hPa 0,0 l/m 0 min 0 min 0 W/m 4,2 km/h (1 Bft)
31.01.2015 21:36 -0,4 C -1,7 C 92 % 985,3 hPa 0,0 l/m 0 min 0 min 0 W/m 6,3 km/h (2 Bft)
31.01.2015 21:38 -0,4 C -1,7 C 92 % 985,3 hPa 0,0 l/m 0 min 0 min 0 W/m 6,3 km/h (2 Bft)
31.01.2015 21:40 -0,4 C -2,2 C 92 % 985,3 hPa 0,0 l/m 0 min 0 min 0 W/m 6,3 km/h (2 Bft)
31.01.2015 21:42 -0,4 C -2,2 C 92 % 985,3 hPa 0,0 l/m 0 min 0 min 0 W/m 6,3 km/h (2 Bft)
31.01.2015 21:44 -0,4 C -2,2 C 92 % 985,3 hPa 0,0 l/m 0 min 0 min 0 W/m 6,3 km/h (2 Bft)
31.01.2015 21:46 -0,4 C -2,2 C 92 % 985,3 hPa 0,0 l/m 0 min 0 min 0 W/m 6,3 km/h (2 Bft)
31.01.2015 21:48 -0,4 C -2,2 C 92 % 985,3 hPa 0,0 l/m 0 min 0 min 0 W/m 8,4 km/h (2 Bft)
31.01.2015 21:50 -0,4 C -2,2 C 92 % 985,3 hPa 0,0 l/m 0 min 0 min 0 W/m 6,3 km/h (2 Bft)
31.01.2015 21:52 -0,4 C -2,2 C 92 % 985,2 hPa 0,0 l/m 0 min 0 min 0 W/m 8,4 km/h (2 Bft)
31.01.2015 21:54 -0,4 C -2,2 C 92 % 985,2 hPa 0,0 l/m 0 min 0 min 0 W/m 8,4 km/h (2 Bft)
31.01.2015 21:56 -0,4 C -2,2 C 92 % 985,2 hPa 0,0 l/m 0 min 0 min 0 W/m 6,3 km/h (2 Bft)
31.01.2015 21:58 -0,4 C -2,2 C 92 % 985,3 hPa 0,0 l/m 0 min 0 min 0 W/m 6,3 km/h (2 Bft)
31.01.2015 22:00 -0,4 C -2,2 C 92 % 985,3 hPa 0,0 l/m 0 min 0 min 0 W/m 6,3 km/h (2 Bft)
31.01.2015 22:02 -0,4 C -2,2 C 92 % 985,3 hPa 0,0 l/m 0 min 0 min 0 W/m 2,1 km/h (1 Bft)
31.01.2015 22:04 -0,4 C -2,2 C 92 % 985,3 hPa 0,0 l/m 0 min 0 min 0 W/m 6,3 km/h (2 Bft)
31.01.2015 22:06 -0,5 C -2,2 C 92 % 985,3 hPa 0,0 l/m 0 min 0 min 0 W/m 6,3 km/h (2 Bft)
31.01.2015 22:08 -0,4 C -2,2 C 92 % 985,3 hPa 0,0 l/m 0 min 0 min 0 W/m 6,3 km/h (2 Bft)
31.01.2015 22:10 -0,4 C -2,2 C 92 % 985,4 hPa 0,0 l/m 0 min 0 min 0 W/m 10,5 km/h (2 Bft)
31.01.2015 22:12 -0,4 C -2,2 C 92 % 985,4 hPa 0,0 l/m 0 min 0 min 0 W/m 8,4 km/h (2 Bft)
31.01.2015 22:14 -0,4 C -2,2 C 92 % 985,5 hPa 0,0 l/m 0 min 0 min 0 W/m 6,3 km/h (2 Bft)
31.01.2015 22:16 -0,4 C -2,2 C 92 % 985,5 hPa 0,0 l/m 0 min 0 min 0 W/m 6,3 km/h (2 Bft)
31.01.2015 22:18 -0,4 C -2,2 C 93 % 985,4 hPa 0,0 l/m 0 min 0 min 0 W/m 4,2 km/h (1 Bft)
31.01.2015 22:20 -0,4 C -2,2 C 93 % 985,5 hPa 0,0 l/m 0 min 0 min 0 W/m 6,3 km/h (2 Bft)
31.01.2015 22:22 -0,4 C -2,2 C 93 % 985,5 hPa 0,0 l/m 0 min 0 min 0 W/m 6,3 km/h (2 Bft)
31.01.2015 22:24 -0,4 C -2,2 C 93 % 985,5 hPa 0,0 l/m 0 min 0 min 0 W/m 6,3 km/h (2 Bft)
31.01.2015 22:26 -0,4 C -2,2 C 93 % 985,5 hPa 0,0 l/m 0 min 0 min 0 W/m 8,4 km/h (2 Bft)
31.01.2015 22:28 -0,4 C -2,2 C 93 % 985,6 hPa 0,0 l/m 0 min 0 min 0 W/m 4,2 km/h (1 Bft)
31.01.2015 22:30 -0,4 C -2,8 C 93 % 985,5 hPa 0,0 l/m 0 min 0 min 0 W/m 4,2 km/h (1 Bft)
31.01.2015 22:32 -0,5 C -2,8 C 93 % 985,5 hPa 0,0 l/m 0 min 0 min 0 W/m 2,1 km/h (1 Bft)
31.01.2015 22:34 -0,5 C -2,8 C 93 % 985,5 hPa 0,0 l/m 0 min 0 min 0 W/m 4,2 km/h (1 Bft)
31.01.2015 22:36 -0,5 C -2,8 C 93 % 985,5 hPa 0,0 l/m 0 min 0 min 0 W/m 4,2 km/h (1 Bft)
31.01.2015 22:38 -0,5 C -2,8 C 93 % 985,5 hPa 0,0 l/m 0 min 0 min 0 W/m 6,3 km/h (2 Bft)
31.01.2015 22:40 -0,6 C -2,8 C 93 % 985,5 hPa 0,0 l/m 0 min 0 min 0 W/m 6,3 km/h (2 Bft)
31.01.2015 22:42 -0,6 C -2,8 C 93 % 985,6 hPa 0,0 l/m 0 min 0 min 0 W/m 4,2 km/h (1 Bft)
31.01.2015 22:44 -0,6 C -2,8 C 93 % 985,5 hPa 0,0 l/m 0 min 0 min 0 W/m 4,2 km/h (1 Bft)
31.01.2015 22:46 -0,6 C -2,8 C 93 % 985,5 hPa 0,0 l/m 0 min 0 min 0 W/m 4,2 km/h (1 Bft)
31.01.2015 22:48 -0,6 C -2,8 C 93 % 985,5 hPa 0,0 l/m 0 min 0 min 0 W/m 2,1 km/h (1 Bft)
31.01.2015 22:50 -0,7 C -3,3 C 93 % 985,6 hPa 0,0 l/m 0 min 0 min 0 W/m 4,2 km/h (1 Bft)
31.01.2015 22:52 -0,7 C -3,3 C 93 % 985,5 hPa 0,0 l/m 0 min 0 min 0 W/m 2,1 km/h (1 Bft)
31.01.2015 22:54 -0,7 C -3,3 C 93 % 985,5 hPa 0,0 l/m 0 min 0 min 0 W/m 2,1 km/h (1 Bft)
31.01.2015 22:56 -0,7 C -3,3 C 92 % 985,5 hPa 0,0 l/m 0 min 0 min 0 W/m 2,1 km/h (1 Bft)
31.01.2015 22:58 -0,8 C -3,3 C 92 % 985,6 hPa 0,0 l/m 0 min 0 min 0 W/m 2,1 km/h (1 Bft)
31.01.2015 23:00 -0,8 C -3,3 C 93 % 985,5 hPa 0,0 l/m 0 min 0 min 0 W/m 2,1 km/h (1 Bft)
31.01.2015 23:02 -0,8 C -3,3 C 93 % 985,6 hPa 0,0 l/m 0 min 0 min 0 W/m 2,1 km/h (1 Bft)
31.01.2015 23:04 -0,9 C -3,3 C 93 % 985,6 hPa 0,0 l/m 0 min 0 min 0 W/m 2,1 km/h (1 Bft)
31.01.2015 23:06 -0,9 C -3,3 C 93 % 985,6 hPa 0,0 l/m 0 min 0 min 0 W/m 4,2 km/h (1 Bft)
31.01.2015 23:08 -0,9 C -3,3 C 93 % 985,6 hPa 0,0 l/m 0 min 0 min 0 W/m 4,2 km/h (1 Bft)
31.01.2015 23:10 -0,9 C -3,3 C 93 % 985,6 hPa 0,0 l/m 0 min 0 min 0 W/m 4,2 km/h (1 Bft)
31.01.2015 23:12 -1,0 C -3,3 C 92 % 985,6 hPa 0,0 l/m 0 min 0 min 0 W/m 4,2 km/h (1 Bft)
31.01.2015 23:14 -1,1 C -3,3 C 92 % 985,6 hPa 0,0 l/m 0 min 0 min 0 W/m 4,2 km/h (1 Bft)
31.01.2015 23:16 -1,1 C -3,3 C 92 % 985,6 hPa 0,0 l/m 0 min 0 min 0 W/m 2,1 km/h (1 Bft)
31.01.2015 23:18 -1,1 C -3,3 C 92 % 985,7 hPa 0,0 l/m 0 min 0 min 0 W/m 2,1 km/h (1 Bft)
31.01.2015 23:20 -1,1 C -3,3 C 92 % 985,6 hPa 0,0 l/m 0 min 0 min 0 W/m 0,0 km/h (0 Bft)
31.01.2015 23:22 -1,2 C -3,3 C 92 % 985,7 hPa 0,0 l/m 0 min 0 min 0 W/m 4,2 km/h (1 Bft)
31.01.2015 23:24 -1,2 C -3,3 C 92 % 985,6 hPa 0,0 l/m 0 min 0 min 0 W/m 4,2 km/h (1 Bft)
31.01.2015 23:26 -1,2 C -3,3 C 92 % 985,6 hPa 0,0 l/m 0 min 0 min 0 W/m 4,2 km/h (1 Bft)
31.01.2015 23:28 -1,2 C -3,3 C 93 % 985,7 hPa 0,0 l/m 0 min 0 min 0 W/m 4,2 km/h (1 Bft)
31.01.2015 23:30 -1,3 C -2,8 C 93 % 985,7 hPa 0,0 l/m 0 min 0 min 0 W/m 4,2 km/h (1 Bft)
31.01.2015 23:32 -1,3 C -2,8 C 93 % 985,7 hPa 0,0 l/m 0 min 0 min 0 W/m 2,1 km/h (1 Bft)
31.01.2015 23:34 -1,3 C -2,8 C 92 % 985,7 hPa 0,0 l/m 0 min 0 min 0 W/m 4,2 km/h (1 Bft)
31.01.2015 23:36 -1,3 C -2,8 C 92 % 985,8 hPa 0,0 l/m 0 min 0 min 0 W/m 4,2 km/h (1 Bft)
31.01.2015 23:38 -1,4 C -2,8 C 92 % 985,8 hPa 0,0 l/m 0 min 0 min 0 W/m 4,2 km/h (1 Bft)
31.01.2015 23:40 -1,4 C -2,8 C 92 % 985,8 hPa 0,0 l/m 0 min 0 min 0 W/m 4,2 km/h (1 Bft)
31.01.2015 23:42 -1,4 C -2,8 C 92 % 985,8 hPa 0,0 l/m 0 min 0 min 0 W/m 4,2 km/h (1 Bft)
31.01.2015 23:44 -1,4 C -2,2 C 92 % 985,8 hPa 0,0 l/m 0 min 0 min 0 W/m 6,3 km/h (2 Bft)
31.01.2015 23:46 -1,4 C -2,2 C 93 % 985,8 hPa 0,0 l/m 0 min 0 min 0 W/m 4,2 km/h (1 Bft)
31.01.2015 23:48 -1,4 C -2,2 C 93 % 985,9 hPa 0,0 l/m 0 min 0 min 0 W/m 2,1 km/h (1 Bft)
31.01.2015 23:50 -1,4 C -2,2 C 93 % 985,9 hPa 0,0 l/m 0 min 0 min 0 W/m 4,2 km/h (1 Bft)
31.01.2015 23:52 -1,4 C -2,2 C 93 % 985,9 hPa 0,0 l/m 0 min 0 min 0 W/m 6,3 km/h (2 Bft)
31.01.2015 23:54 -1,4 C -2,2 C 93 % 985,9 hPa 0,0 l/m 0 min 0 min 0 W/m 6,3 km/h (2 Bft)
31.01.2015 23:56 -1,4 C -2,2 C 93 % 986,0 hPa 0,0 l/m 0 min 0 min 0 W/m 6,3 km/h (2 Bft)
31.01.2015 23:58 -1,3 C -2,2 C 93 % 985,9 hPa 0,0 l/m 0 min 0 min 0 W/m 6,3 km/h (2 Bft)
_ Min-Zeit 23:38 22:50 15:08 00:00 - - - - 23:20
Minimum _ -1,4 C -3,3 C 75 % 977,2 hPa - - - - 0,0 km/h (0 Bft)
_ Max-Zeit 13:10 14:50 01:40 23:56 00:00 09:14 00:00 12:48 01:06
Maximum _ 5,8 C 5,0 C 96 % 986,0 hPa 0,0 l/m 2 min 2 min 447 W/m 35,6 km/h
W (5 Bft)
Durchschnitt _ 1,8 C 0,2 C 90 % 981,4 hPa #0,0 l/m #4:55 h #33 min. 160 W/m 15,8 km/h (3 Bft)
© 2015 W. Hausmann